KC5DAQ-25 Weather Reports


Display with metric or nautical units.
time (UTC)temp
F
wind
direction
speed
MPH
gust
MPH
rain 1hr
in
rain 24hr
in
rain mn
in
humidity
%
barometer
mb
20260508181504 75 298 0.0 2.0 0.00 0.01 0.01 81 1002.9
20260508181405 75 298 1.0 2.0 0.00 0.01 0.01 81 1002.9
20260508181304 75 298 1.0 2.0 0.00 0.01 0.01 81 1003.0
20260508181203 75 337 0.0 2.0 0.00 0.01 0.01 81 1002.9
20260508181109 75 329 0.0 2.0 0.00 0.01 0.01 81 1002.9
20260508181004 75 329 0.0 2.0 0.00 0.01 0.01 81 1002.9
20260508180903 75 329 0.0 2.0 0.00 0.01 0.01 81 1002.9
20260508180803 75 0 0.0 1.0 0.00 0.01 0.01 81 1002.9
20260508180704 75 0 0.0 1.0 0.00 0.01 0.01 81 1002.8
20260508180605 75 0 0.0 1.0 0.00 0.01 0.01 82 1002.8
20260508180503 75 4 0.0 1.0 0.00 0.01 0.01 82 1002.8
20260508180404 75 4 0.0 1.0 0.00 0.01 0.01 81 1002.8
20260508180304 74 4 0.0 1.0 0.00 0.01 0.01 82 1002.8
20260508180203 74 18 0.0 1.0 0.00 0.01 0.01 82 1002.9
20260508180103 74 279 0.0 1.0 0.00 0.01 0.01 83 1002.9
20260508180005 74 278 0.0 1.0 0.00 0.01 0.01 83 1003.1
20260508175904 74 281 0.0 1.0 0.00 0.01 0.01 83 1003.1
20260508175804 74 281 0.0 1.0 0.00 0.01 0.01 83 1003.1
20260508175703 74 281 0.0 1.0 0.00 0.01 0.01 83 1003.1
20260508175603 73 281 0.0 1.0 0.00 0.01 0.01 83 1003.1
20260508175505 73 90 0.0 0.0 0.00 0.01 0.01 83 1003.1
20260508175403 73 90 0.0 0.0 0.00 0.01 0.01 83 1003.1
20260508175306 73 157 0.0 0.0 0.00 0.01 0.01 83 1003.1
20260508175204 73 157 0.0 0.0 0.00 0.01 0.01 83 1003.2
20260508175103 73 157 0.0 0.0 0.00 0.01 0.01 83 1003.2
20260508175004 73 157 0.0 0.0 0.00 0.01 0.01 83 1003.2
20260508174904 73 157 0.0 0.0 0.00 0.01 0.01 83 1003.2
20260508174803 73 157 0.0 0.0 0.00 0.01 0.01 83 1003.3
20260508174705 73 157 0.0 0.0 0.00 0.01 0.01 83 1003.3
20260508174603 73 157 0.0 0.0 0.00 0.01 0.01 83 1003.4
20260508174505 73 157 0.0 0.0 0.00 0.01 0.01 83 1003.4
20260508174403 73 157 0.0 0.0 0.00 0.01 0.01 83 1003.6
20260508174303 73 157 0.0 0.0 0.00 0.01 0.01 83 1003.5
20260508174204 73 157 0.0 0.0 0.00 0.01 0.01 83 1003.7
20260508174103 73 157 0.0 0.0 0.00 0.01 0.01 83 1003.7
20260508174006 73 157 0.0 2.0 0.00 0.01 0.01 83 1003.7
20260508173903 73 157 0.0 2.0 0.00 0.01 0.01 83 1003.6
20260508173804 73 157 0.0 2.0 0.00 0.01 0.01 83 1003.6
20260508173704 73 157 0.0 2.0 0.00 0.01 0.01 83 1003.7
20260508173603 73 157 0.0 2.0 0.00 0.01 0.01 83 1003.7
20260508173505 73 157 0.0 2.0 0.00 0.01 0.01 83 1003.8
20260508173404 73 157 0.0 2.0 0.00 0.01 0.01 83 1003.8
20260508173303 73 157 0.0 2.0 0.00 0.01 0.01 83 1003.8
20260508173203 73 157 0.0 2.0 0.00 0.01 0.01 83 1003.8
20260508173103 73 157 0.0 2.0 0.00 0.01 0.01 83 1003.8
20260508173003 73 262 0.0 1.0 0.00 0.01 0.01 83 1003.8
20260508172904 72 262 0.0 1.0 0.00 0.01 0.01 83 1003.9
20260508172803 72 262 0.0 1.0 0.00 0.01 0.01 82 1003.9
20260508172704 72 262 0.0 1.0 0.00 0.01 0.01 82 1003.8
20260508172606 72 262 0.0 1.0 0.00 0.01 0.01 82 1003.9
20260508172503 72 262 0.0 1.0 0.00 0.01 0.01 82 1003.9
20260508172401 72 262 0.0 1.0 0.00 0.01 0.01 82 1003.9
20260508172307 72 262 0.0 1.0 0.00 0.01 0.01 82 1003.9
20260508172202 72 262 0.0 0.0 0.00 0.01 0.01 82 1003.9
20260508172105 73 262 0.0 0.0 0.00 0.01 0.01 82 1003.9
20260508172005 73 262 0.0 0.0 0.00 0.01 0.01 82 1003.9
20260508171902 73 262 0.0 0.0 0.00 0.01 0.01 82 1004.0
20260508171803 73 262 0.0 0.0 0.00 0.01 0.01 82 1004.0
20260508171702 73 262 0.0 0.0 0.00 0.01 0.01 83 1004.0
20260508171604 73 262 0.0 0.0 0.00 0.01 0.01 83 1003.9
20260508171505 73 262 0.0 0.0 0.00 0.01 0.01 83 1003.8
20260508171358 73 262 0.0 0.0 0.00 0.01 0.01 83 1003.8
20260508171259 73 262 0.0 0.0 0.00 0.01 0.01 83 1003.9
20260508171159 73 262 0.0 0.0 0.00 0.01 0.01 82 1003.7
20260508171056 73 262 0.0 0.0 0.00 0.01 0.01 82 1003.8
20260508170952 73 262 0.0 1.0 0.00 0.01 0.01 82 1003.7
20260508170851 72 262 0.0 1.0 0.00 0.01 0.01 82 1003.7
20260508170746 72 262 0.0 2.0 0.00 0.01 0.01 82 1003.8
20260508170641 72 262 0.0 2.0 0.00 0.01 0.01 82 1003.8
20260508170534 73 262 0.0 2.0 0.00 0.01 0.01 82 1003.7
20260508170431 73 262 0.0 2.0 0.00 0.01 0.01 82 1003.7
20260508170332 73 262 0.0 2.0 0.00 0.01 0.01 82 1003.7
20260508170230 73 262 0.0 2.0 0.00 0.01 0.01 82 1003.8
20260508170127 73 262 0.0 2.0 0.00 0.01 0.01 82 1003.8
20260508170028 73 262 0.0 2.0 0.00 0.01 0.01 82 1003.8
20260508165923 73 262 0.0 2.0 0.00 0.01 0.01 82 1003.7
20260508165820 73 262 0.0 2.0 0.00 0.01 0.01 82 1003.7
20260508165720 73 257 0.0 1.0 0.00 0.01 0.01 82 1003.7
20260508165617 73 178 0.0 1.0 0.00 0.01 0.01 82 1003.6
20260508165516 73 178 0.0 1.0 0.00 0.01 0.01 82 1003.6
20260508165417 73 178 0.0 1.0 0.00 0.01 0.01 82 1003.7
20260508165317 73 176 0.0 1.0 0.00 0.01 0.01 82 1003.6
20260508165215 73 176 0.0 2.0 0.00 0.01 0.01 82 1003.6
20260508165115 73 176 0.0 2.0 0.00 0.01 0.01 82 1003.5
20260508165011 73 176 0.0 2.0 0.00 0.01 0.01 82 1003.5
20260508164904 73 176 0.0 2.0 0.00 0.01 0.01 82 1003.6
20260508164805 73 176 0.0 2.0 0.00 0.01 0.01 82 1003.6
20260508164702 73 209 0.0 2.0 0.00 0.01 0.01 82 1003.8
20260508164601 73 209 0.0 2.0 0.00 0.01 0.01 82 1003.8
20260508164504 73 209 0.0 2.0 0.00 0.01 0.01 82 1003.8
20260508164404 73 209 1.0 2.0 0.00 0.01 0.01 82 1003.9
20260508164303 73 209 0.0 2.0 0.00 0.01 0.01 82 1004.0
20260508164202 73 209 0.0 2.0 0.00 0.01 0.01 82 1004.0
20260508164103 73 209 0.0 2.0 0.00 0.01 0.01 82 1003.9
20260508163957 73 37 0.0 2.0 0.00 0.01 0.01 82 1004.0
20260508163853 72 35 0.0 2.0 0.00 0.01 0.01 82 1003.9
20260508163752 72 34 0.0 2.0 0.00 0.01 0.01 82 1004.0
20260508163647 72 37 0.0 2.0 0.00 0.01 0.01 82 1003.9
20260508163538 72 31 0.0 2.0 0.00 0.01 0.01 82 1003.9
20260508163433 72 28 0.0 2.0 0.00 0.01 0.01 82 1004.0
20260508163331 72 65 0.0 2.0 0.00 0.01 0.01 82 1004.0
20260508163230 73 63 0.0 2.0 0.00 0.01 0.01 82 1003.9
20260508163132 73 69 0.0 2.0 0.00 0.01 0.01 82 1003.9
20260508163038 72 17 0.0 2.0 0.00 0.01 0.01 82 1003.9
20260508162932 73 303 0.0 2.0 0.00 0.01 0.01 82 1003.9
20260508162831 72 303 0.0 2.0 0.00 0.01 0.01 82 1003.9
20260508162732 72 303 0.0 2.0 0.00 0.01 0.01 82 1004.0
20260508162633 72 303 0.0 2.0 0.00 0.01 0.01 82 1004.0
20260508162536 72 303 0.0 2.0 0.00 0.01 0.01 82 1004.0
20260508162417 72 303 0.0 2.0 0.00 0.01 0.01 82 1004.2
20260508162316 72 300 0.0 0.0 0.00 0.01 0.01 82 1004.2
20260508162210 72 326 0.0 0.0 0.00 0.01 0.01 82 1004.2
20260508162111 72 326 0.0 0.0 0.00 0.01 0.01 82 1004.3
20260508162008 72 324 0.0 1.0 0.00 0.01 0.01 81 1004.2
20260508161904 72 326 0.0 1.0 0.00 0.01 0.01 82 1004.2
20260508161803 72 285 0.0 1.0 0.00 0.01 0.01 82 1004.2
20260508161704 72 285 0.0 1.0 0.00 0.01 0.01 82 1004.2
20260508161602 72 290 0.0 2.0 0.00 0.01 0.01 82 1004.2
20260508161504 72 290 0.0 2.0 0.00 0.01 0.01 82 1004.1
20260508161402 72 290 0.0 2.0 0.00 0.01 0.01 82 1004.0
20260508161303 72 290 0.0 2.0 0.00 0.01 0.01 82 1004.0
20260508161205 72 290 0.0 2.0 0.00 0.01 0.01 82 1003.9
20260508161102 72 290 0.0 2.0 0.00 0.01 0.01 83 1003.9
20260508161003 72 124 0.0 2.0 0.00 0.01 0.01 83 1004.0
20260508160902 71 121 0.0 2.0 0.00 0.01 0.01 83 1004.0
20260508160803 71 121 0.0 2.0 0.00 0.01 0.01 83 1004.0
20260508160702 71 121 0.0 2.0 0.00 0.01 0.01 83 1004.0
20260508160603 71 319 0.0 2.0 0.00 0.01 0.01 83 1004.1
20260508160503 71 319 0.0 2.0 0.00 0.01 0.01 83 1004.1
20260508160404 71 319 0.0 2.0 0.00 0.01 0.01 82 1004.1
20260508160303 71 319 1.0 2.0 0.00 0.01 0.01 83 1004.1
20260508160202 71 319 1.0 2.0 0.00 0.01 0.01 83 1004.0
20260508160004 71 68 0.0 2.0 0.00 0.01 0.01 82 1003.9
20260508155903 71 68 0.0 2.0 0.00 0.01 0.01 82 1004.0
20260508155802 71 68 0.0 2.0 0.00 0.01 0.01 82 1004.0
20260508155702 71 85 0.0 2.0 0.00 0.01 0.01 82 1004.0
20260508155603 71 39 0.0 2.0 0.00 0.01 0.01 82 1004.1
20260508155502 71 39 0.0 2.0 0.00 0.01 0.01 82 1004.1
20260508155402 71 39 0.0 2.0 0.00 0.01 0.01 82 1004.2
20260508155305 71 94 0.0 2.0 0.00 0.01 0.01 82 1004.2
20260508155203 71 94 0.0 2.0 0.00 0.01 0.01 82 1004.1
20260508155102 71 93 1.0 2.0 0.00 0.01 0.01 83 1004.2
20260508155002 71 38 0.0 2.0 0.00 0.01 0.01 82 1004.1
20260508154902 71 329 0.0 2.0 0.00 0.01 0.01 82 1004.1
20260508154804 71 329 0.0 2.0 0.00 0.01 0.01 83 1004.1
20260508154702 71 303 0.0 3.0 0.00 0.01 0.01 83 1004.1
20260508154603 71 300 0.0 3.0 0.00 0.01 0.01 84 1004.1
20260508154501 71 300 0.0 3.0 0.00 0.01 0.01 84 1004.1
20260508154403 71 300 0.0 3.0 0.00 0.01 0.01 84 1004.1
20260508154302 71 299 0.0 3.0 0.00 0.01 0.01 84 1004.2
20260508154202 71 299 0.0 3.0 0.00 0.01 0.01 83 1004.2
20260508154101 70 299 0.0 3.0 0.00 0.01 0.01 83 1004.3
20260508154002 70 299 0.0 3.0 0.00 0.01 0.01 83 1004.3
20260508153902 70 299 0.0 3.0 0.00 0.01 0.01 83 1004.4
20260508153802 70 320 0.0 3.0 0.00 0.01 0.01 83 1004.4
20260508153702 70 47 0.0 2.0 0.00 0.01 0.01 83 1004.4
20260508153603 70 307 0.0 2.0 0.00 0.01 0.01 83 1004.5
20260508153502 70 307 0.0 2.0 0.00 0.01 0.01 83 1004.6
20260508153402 70 307 0.0 2.0 0.00 0.01 0.01 83 1004.5
20260508153302 70 307 0.0 2.0 0.00 0.01 0.01 83 1004.6
20260508153202 70 307 0.0 2.0 0.00 0.01 0.01 84 1004.6
20260508153102 70 307 0.0 2.0 0.00 0.01 0.01 84 1004.7
20260508153004 70 180 0.0 1.0 0.00 0.01 0.01 84 1004.7
20260508152902 69 6 0.0 1.0 0.00 0.01 0.01 84 1004.6
20260508152805 69 6 0.0 1.0 0.00 0.01 0.01 84 1004.7
20260508152705 69 162 0.0 1.0 0.00 0.01 0.01 84 1004.7
20260508152602 69 166 0.0 1.0 0.00 0.01 0.01 85 1004.7
20260508152504 69 166 0.0 1.0 0.00 0.01 0.01 85 1004.7
20260508152402 69 72 0.0 1.0 0.00 0.01 0.01 85 1004.7
20260508152305 69 85 0.0 1.0 0.00 0.01 0.01 85 1004.7
20260508152203 69 85 0.0 1.0 0.00 0.01 0.01 85 1004.7
20260508152102 69 47 0.0 1.0 0.00 0.01 0.01 85 1004.7
20260508152004 69 316 0.0 1.0 0.00 0.01 0.01 86 1004.8
20260508151903 69 316 0.0 1.0 0.00 0.01 0.01 86 1004.7
20260508151802 69 316 0.0 1.0 0.00 0.01 0.01 86 1004.8
20260508151702 68 316 0.0 1.0 0.00 0.01 0.01 86 1004.9
20260508151603 68 316 0.0 1.0 0.00 0.01 0.01 86 1004.9
20260508151503 68 316 0.0 1.0 0.00 0.01 0.01 86 1004.9
20260508151402 68 316 0.0 1.0 0.00 0.01 0.01 86 1004.9
20260508151303 68 28 0.0 1.0 0.00 0.01 0.01 86 1004.9
20260508151201 68 25 0.0 1.0 0.00 0.01 0.01 86 1004.9
20260508151100 67 25 0.0 1.0 0.00 0.01 0.01 86 1004.8
20260508151000 67 25 0.0 1.0 0.00 0.01 0.01 86 1004.8
20260508150901 67 25 0.0 1.0 0.00 0.01 0.01 86 1004.8
20260508150801 67 24 0.0 1.0 0.00 0.01 0.01 86 1004.8
20260508150701 67 24 0.0 1.0 0.00 0.01 0.01 86 1004.8
20260508150559 67 24 0.0 1.0 0.00 0.01 0.01 86 1004.8
20260508150501 67 24 0.0 1.0 0.00 0.01 0.01 86 1004.8
20260508150359 67 24 0.0 1.0 0.00 0.01 0.01 86 1004.9
20260508150301 67 24 0.0 1.0 0.00 0.01 0.01 86 1004.9
20260508150159 67 24 0.0 1.0 0.00 0.01 0.01 86 1004.9
20260508145959 67 49 0.0 3.0 0.00 0.01 0.01 86 1005.0
20260508145900 67 49 0.0 3.0 0.00 0.01 0.01 86 1005.1
20260508145759 67 49 0.0 3.0 0.00 0.01 0.01 86 1005.0
20260508145700 67 197 0.0 3.0 0.00 0.01 0.01 86 1005.0
20260508145559 67 200 0.0 3.0 0.00 0.01 0.01 86 1005.1
20260508145500 67 202 0.0 3.0 0.00 0.01 0.01 86 1005.1
20260508145359 67 202 0.0 3.0 0.00 0.01 0.01 86 1005.1
20260508145301 67 203 0.0 3.0 0.00 0.01 0.01 86 1005.0
20260508145159 67 203 0.0 3.0 0.00 0.01 0.01 86 1005.0
20260508145100 67 323 0.0 2.0 0.00 0.01 0.01 86 1005.1
20260508145000 67 323 0.0 2.0 0.00 0.01 0.01 86 1005.1
20260508144859 67 323 0.0 2.0 0.00 0.01 0.01 86 1005.0
20260508144759 67 282 0.0 2.0 0.00 0.01 0.01 86 1005.1
20260508144700 67 282 0.0 2.0 0.00 0.01 0.01 86 1005.1
20260508144600 67 282 0.0 2.0 0.00 0.01 0.01 86 1005.1
20260508144500 67 282 0.0 2.0 0.00 0.01 0.01 86 1005.2
20260508144359 67 306 0.0 2.0 0.00 0.01 0.01 86 1005.1
20260508144301 67 68 0.0 1.0 0.00 0.01 0.01 86 1005.2
20260508144159 67 42 0.0 1.0 0.00 0.01 0.01 86 1005.2
20260508144059 67 0 0.0 1.0 0.00 0.01 0.01 86 1005.2
20260508143959 67 0 0.0 1.0 0.00 0.01 0.01 86 1005.2
20260508143859 67 0 0.0 2.0 0.00 0.01 0.01 86 1005.1
20260508143801 67 0 0.0 2.0 0.00 0.01 0.01 86 1005.0
20260508143701 66 0 0.0 2.0 0.00 0.01 0.01 86 1005.0
20260508143600 66 0 0.0 2.0 0.00 0.01 0.01 86 1005.0
20260508143459 66 0 0.0 2.0 0.00 0.01 0.01 86 1005.1
20260508143359 66 0 0.0 2.0 0.00 0.01 0.01 86 1005.0
20260508143258 66 0 0.0 2.0 0.00 0.01 0.01 86 1005.1
20260508143159 66 0 0.0 2.0 0.00 0.01 0.01 86 1005.2
20260508143059 66 0 0.0 2.0 0.00 0.01 0.01 86 1005.2
20260508142958 66 0 0.0 2.0 0.00 0.01 0.01 86 1005.2
20260508142900 66 312 0.0 1.0 0.00 0.01 0.01 86 1005.3
20260508142758 66 307 0.0 1.0 0.00 0.01 0.01 86 1005.2
20260508142700 66 0 0.0 1.0 0.00 0.01 0.01 86 1005.1
20260508142559 66 173 0.0 1.0 0.00 0.01 0.01 86 1005.2
20260508142458 66 173 0.0 1.0 0.00 0.01 0.01 86 1005.2
20260508142359 66 173 0.0 1.0 0.00 0.01 0.01 86 1005.1
20260508142259 66 206 0.0 1.0 0.00 0.01 0.01 86 1005.1
20260508142158 66 134 0.0 1.0 0.00 0.01 0.01 86 1005.1
20260508142059 66 134 0.0 1.0 0.00 0.01 0.01 86 1005.2
20260508141959 66 134 0.0 1.0 0.00 0.01 0.01 86 1005.1
20260508141859 66 72 0.0 1.0 0.00 0.01 0.01 86 1005.2
20260508141759 66 137 0.0 1.0 0.00 0.01 0.01 86 1005.2
20260508141700 66 79 0.0 1.0 0.00 0.01 0.01 86 1005.3
20260508141559 66 68 0.0 1.0 0.00 0.01 0.01 86 1005.3
20260508141459 66 159 0.0 1.0 0.00 0.01 0.01 86 1005.3
20260508141400 66 159 0.0 1.0 0.00 0.01 0.01 86 1005.2
20260508141300 66 151 0.0 1.0 0.00 0.01 0.01 86 1005.2
20260508141158 66 109 0.0 1.0 0.00 0.01 0.01 86 1005.2
20260508141105 66 109 0.0 1.0 0.00 0.01 0.01 86 1005.1
20260508140958 66 109 0.0 1.0 0.00 0.01 0.01 86 1005.1
20260508140859 66 109 0.0 1.0 0.00 0.01 0.01 86 1005.2
20260508140759 66 109 0.0 1.0 0.00 0.01 0.01 86 1005.3
20260508140659 66 109 0.0 1.0 0.00 0.01 0.01 86 1005.3
20260508140603 66 109 0.0 1.0 0.00 0.01 0.01 86 1005.2
20260508140458 66 109 0.0 1.0 0.00 0.01 0.01 86 1005.2
20260508140359 66 109 0.0 1.0 0.00 0.01 0.01 86 1005.2
20260508140259 66 109 0.0 1.0 0.00 0.01 0.01 86 1005.2
20260508140159 66 110 0.0 1.0 0.00 0.01 0.01 86 1005.1
20260508140100 66 113 0.0 1.0 0.00 0.01 0.01 86 1005.2
20260508140000 66 113 0.0 2.0 0.00 0.01 0.01 86 1005.2
20260508135859 66 113 0.0 2.0 0.00 0.01 0.01 86 1005.2
20260508135758 66 266 0.0 2.0 0.00 0.01 0.01 86 1005.2
20260508135659 66 195 0.0 2.0 0.00 0.01 0.01 86 1005.2
20260508135559 66 195 0.0 2.0 0.00 0.01 0.01 86 1005.0
20260508135458 66 195 0.0 2.0 0.00 0.01 0.01 86 1005.0
20260508135400 66 195 0.0 2.0 0.00 0.01 0.01 86 1005.0
20260508135259 66 190 0.0 2.0 0.00 0.01 0.01 86 1005.0
20260508135200 66 237 0.0 2.0 0.00 0.01 0.01 86 1005.1
20260508135059 66 99 0.0 2.0 0.00 0.01 0.01 86 1005.0
20260508134959 66 59 0.0 2.0 0.00 0.01 0.01 86 1005.1
20260508134858 66 59 0.0 2.0 0.00 0.01 0.01 86 1005.1
20260508134757 66 147 0.0 1.0 0.00 0.01 0.01 86 1005.1
20260508134659 66 147 0.0 1.0 0.00 0.01 0.01 86 1005.1
20260508134559 66 147 0.0 1.0 0.00 0.01 0.01 86 1005.1
20260508134459 66 147 0.0 1.0 0.00 0.01 0.01 86 1005.2
20260508134359 66 206 0.0 1.0 0.00 0.01 0.01 86 1005.2
20260508134259 66 204 0.0 1.0 0.00 0.01 0.01 86 1005.2
20260508134158 66 204 0.0 1.0 0.00 0.01 0.01 86 1005.2
20260508134058 66 204 0.0 1.0 0.00 0.01 0.01 86 1005.2
20260508133957 66 204 0.0 1.0 0.00 0.01 0.01 86 1005.2
20260508133858 66 216 0.0 0.0 0.00 0.01 0.01 86 1005.2
20260508133759 66 216 0.0 0.0 0.00 0.01 0.01 86 1005.1
20260508133701 66 216 0.0 0.0 0.00 0.01 0.01 85 1005.1
20260508133557 66 216 0.0 0.0 0.00 0.01 0.01 85 1005.1
20260508133458 66 216 0.0 0.0 0.00 0.01 0.01 85 1005.1
20260508133359 66 320 0.0 0.0 0.00 0.01 0.01 85 1005.1
20260508133258 66 320 0.0 0.0 0.00 0.01 0.01 85 1005.0
20260508133158 66 320 0.0 0.0 0.00 0.01 0.01 85 1005.1
20260508133059 66 320 0.0 0.0 0.00 0.01 0.01 85 1005.0
20260508132958 66 320 0.0 0.0 0.00 0.01 0.01 85 1005.1
20260508132857 66 320 0.0 0.0 0.00 0.01 0.01 85 1005.1
20260508132759 66 320 0.0 0.0 0.00 0.01 0.01 85 1005.1
20260508132658 66 320 0.0 0.0 0.00 0.01 0.01 85 1005.0
20260508132559 66 320 0.0 0.0 0.00 0.01 0.01 85 1005.0
20260508132458 66 320 0.0 0.0 0.00 0.01 0.01 85 1005.0
20260508132357 66 320 0.0 0.0 0.00 0.01 0.01 85 1005.0
20260508132257 66 320 0.0 0.0 0.00 0.01 0.01 85 1005.0
20260508132159 66 320 0.0 0.0 0.00 0.01 0.01 85 1005.0
20260508132058 66 320 0.0 0.0 0.00 0.01 0.01 85 1005.0
20260508131957 66 320 0.0 0.0 0.00 0.01 0.01 85 1004.9
20260508131857 66 320 0.0 0.0 0.00 0.01 0.01 85 1004.8
20260508131757 66 320 0.0 0.0 0.00 0.01 0.01 85 1004.7
20260508131657 66 320 0.0 0.0 0.00 0.01 0.01 85 1004.8
20260508131603 66 320 0.0 0.0 0.00 0.01 0.01 85 1004.7
20260508131458 66 320 0.0 0.0 0.00 0.01 0.01 85 1004.8
20260508131358 66 320 0.0 0.0 0.00 0.01 0.01 85 1004.8
20260508131256 66 320 0.0 0.0 0.00 0.01 0.01 85 1004.8
20260508131157 66 320 0.0 0.0 0.00 0.01 0.01 85 1004.8
20260508131104 66 320 0.0 0.0 0.00 0.01 0.01 85 1004.8
20260508130953 66 320 0.0 0.0 0.00 0.01 0.01 85 1004.8
20260508130853 66 320 0.0 0.0 0.00 0.01 0.01 85 1004.8
20260508130749 66 320 0.0 0.0 0.01 0.01 0.01 85 1004.7
20260508130643 66 320 0.0 0.0 0.01 0.01 0.01 85 1004.7
20260508130545 66 320 0.0 0.0 0.01 0.01 0.01 85 1004.6
20260508130442 66 320 0.0 1.0 0.01 0.01 0.01 85 1004.7
20260508130340 66 320 0.0 1.0 0.01 0.01 0.01 85 1004.7
20260508130241 66 320 0.0 1.0 0.01 0.01 0.01 85 1004.7
20260508130140 66 320 0.0 1.0 0.01 0.01 0.01 85 1004.7
20260508130036 66 320 0.0 1.0 0.01 0.01 0.01 85 1004.7
20260508125937 66 320 0.0 1.0 0.01 0.00 0.01 85 1004.7
20260508125833 66 320 0.0 1.0 0.01 0.00 0.01 85 1004.7
20260508125736 66 320 0.0 1.0 0.01 0.00 0.01 85 1004.7
20260508125633 66 320 0.0 1.0 0.01 0.00 0.01 85 1004.6
20260508125532 66 320 0.0 1.0 0.01 0.00 0.01 85 1004.6
20260508125427 66 320 0.0 0.0 0.01 0.00 0.01 85 1004.6
20260508125326 66 320 0.0 0.0 0.01 0.00 0.01 85 1004.6
20260508125224 66 320 0.0 0.0 0.01 0.00 0.01 85 1004.6
20260508125122 66 320 0.0 0.0 0.01 0.00 0.01 85 1004.6
20260508125017 66 320 0.0 0.0 0.01 0.00 0.01 85 1004.8
20260508124915 66 320 0.0 0.0 0.01 0.00 0.01 84 1004.7
20260508124813 66 320 0.0 0.0 0.01 0.00 0.01 84 1004.6
20260508124712 66 320 0.0 0.0 0.01 0.00 0.01 84 1004.5
20260508124606 66 320 0.0 0.0 0.01 0.00 0.01 84 1004.4
20260508124506 66 320 0.0 0.0 0.01 0.00 0.01 84 1004.3
20260508124403 66 320 0.0 0.0 0.01 0.00 0.01 84 1004.2
20260508124302 66 320 0.0 0.0 0.01 0.00 0.01 84 1004.1
20260508124203 66 320 0.0 0.0 0.01 0.00 0.01 84 1004.2
20260508124102 66 320 0.0 0.0 0.01 0.00 0.01 84 1004.1
20260508124002 66 320 0.0 0.0 0.01 0.00 0.01 84 1004.2
20260508123903 66 320 0.0 0.0 0.01 0.00 0.01 84 1004.3
20260508123803 66 320 0.0 0.0 0.01 0.00 0.01 84 1004.3
20260508123704 66 320 0.0 0.0 0.01 0.00 0.01 84 1004.4
20260508123603 66 320 0.0 0.0 0.01 0.00 0.01 84 1004.4
20260508123503 66 320 0.0 0.0 0.01 0.00 0.01 84 1004.4
20260508123403 66 320 0.0 0.0 0.01 0.00 0.01 84 1004.4
20260508123303 66 320 0.0 0.0 0.01 0.00 0.01 84 1004.4
20260508123202 66 320 0.0 0.0 0.01 0.00 0.01 84 1004.5
20260508123104 66 320 0.0 0.0 0.01 0.00 0.01 84 1004.6
20260508123003 66 320 0.0 0.0 0.01 0.00 0.01 84 1004.7
20260508122901 66 320 0.0 0.0 0.01 0.00 0.01 84 1004.8
20260508122803 66 320 0.0 0.0 0.01 0.00 0.01 84 1004.9
20260508122703 66 320 0.0 0.0 0.01 0.00 0.01 84 1005.0
20260508122603 66 320 0.0 0.0 0.01 0.00 0.01 84 1005.1
20260508122502 66 320 0.0 0.0 0.01 0.00 0.01 84 1005.0
20260508122402 66 320 0.0 0.0 0.01 0.00 0.01 84 1005.1
20260508122306 66 320 0.0 0.0 0.01 0.00 0.01 84 1005.1
20260508122203 66 320 0.0 0.0 0.01 0.00 0.01 83 1005.1
20260508122103 66 320 0.0 0.0 0.01 0.00 0.01 83 1005.0
20260508122002 67 320 0.0 0.0 0.01 0.00 0.01 83 1005.0
20260508121903 67 320 0.0 0.0 0.01 0.00 0.01 83 1005.0
20260508121803 67 320 0.0 0.0 0.01 0.00 0.01 83 1005.0
20260508121702 67 320 0.0 0.0 0.01 0.00 0.01 83 1005.0
20260508121613 67 320 0.0 0.0 0.01 0.00 0.01 83 1005.1
20260508121505 67 320 0.0 0.0 0.01 0.00 0.01 83 1005.1
20260508121403 67 320 0.0 0.0 0.01 0.00 0.01 83 1005.1
20260508121302 67 320 0.0 0.0 0.01 0.00 0.01 84 1005.1
20260508121203 67 320 0.0 0.0 0.01 0.00 0.01 83 1005.2
20260508121103 67 320 0.0 1.0 0.01 0.00 0.01 83 1005.1
20260508121003 67 320 0.0 1.0 0.01 0.00 0.00 83 1005.0
20260508120902 67 320 0.0 1.0 0.01 0.00 0.00 83 1005.0
20260508120802 67 320 0.0 1.0 0.00 0.00 0.00 83 1004.8
20260508120702 67 320 0.0 1.0 0.00 0.00 0.00 83 1004.8
20260508120602 67 320 0.0 1.0 0.00 0.00 0.00 83 1004.6
20260508120502 67 320 0.0 1.0 0.00 0.00 0.00 83 1004.5
20260508120402 67 320 0.0 1.0 0.00 0.00 0.00 83 1004.5
20260508120303 67 320 0.0 1.0 0.00 0.00 0.00 83 1004.5
20260508120203 67 320 0.0 1.0 0.00 0.00 0.00 83 1004.5
20260508120002 67 52 0.0 1.0 0.00 0.00 0.00 83 1004.5
20260508115902 67 52 0.0 1.0 0.00 0.00 0.00 83 1004.5
20260508115802 67 0 0.0 1.0 0.00 0.00 0.00 83 1004.5
20260508115702 67 312 0.0 1.0 0.00 0.00 0.00 83 1004.5
20260508115602 67 312 0.0 1.0 0.00 0.00 0.00 83 1004.5
20260508115503 67 350 0.0 0.0 0.00 0.00 0.00 83 1004.5
20260508115403 67 350 0.0 0.0 0.00 0.00 0.00 83 1004.5
20260508115306 67 350 0.0 0.0 0.00 0.00 0.00 83 1004.5
20260508115212 67 350 0.0 1.0 0.00 0.00 0.00 83 1004.6
20260508115103 67 350 0.0 1.0 0.00 0.00 0.00 83 1004.6
20260508115003 67 350 0.0 1.0 0.00 0.00 0.00 83 1004.6
20260508114902 67 350 0.0 1.0 0.00 0.00 0.00 83 1004.7
20260508114803 67 350 0.0 1.0 0.00 0.00 0.00 83 1004.7
20260508114706 67 350 0.0 1.0 0.00 0.00 0.00 83 1004.7
20260508114602 67 350 0.0 1.0 0.00 0.00 0.00 83 1004.7
20260508114504 67 350 0.0 1.0 0.00 0.00 0.00 83 1004.7
20260508114404 67 350 0.0 1.0 0.00 0.00 0.00 83 1004.7
20260508114303 67 350 0.0 1.0 0.00 0.00 0.00 83 1004.7
20260508114203 67 350 0.0 1.0 0.00 0.00 0.00 83 1004.7
20260508114102 67 350 0.0 1.0 0.00 0.00 0.00 83 1004.8
20260508114004 67 350 0.0 1.0 0.00 0.00 0.00 83 1004.8
20260508113903 67 350 0.0 1.0 0.00 0.00 0.00 83 1004.8
20260508113801 67 350 0.0 1.0 0.00 0.00 0.00 83 1004.8
20260508113702 67 350 0.0 1.0 0.00 0.00 0.00 83 1004.8
20260508113603 67 350 0.0 1.0 0.00 0.00 0.00 83 1004.7
20260508113503 67 350 0.0 1.0 0.00 0.00 0.00 83 1004.7
20260508113402 67 348 0.0 1.0 0.00 0.00 0.00 83 1004.7
20260508113302 67 121 0.0 0.0 0.00 0.00 0.00 83 1004.8
20260508113202 67 121 0.0 0.0 0.00 0.00 0.00 83 1004.8
20260508113102 67 121 0.0 1.0 0.00 0.00 0.00 83 1004.8
20260508113005 67 121 0.0 1.0 0.00 0.00 0.00 83 1004.9
20260508112901 67 121 0.0 1.0 0.00 0.00 0.00 82 1004.9
20260508112801 67 121 0.0 1.0 0.00 0.00 0.00 82 1005.0
20260508112658 67 121 0.0 1.0 0.00 0.00 0.00 83 1004.8
20260508112557 67 121 0.0 1.0 0.00 0.00 0.00 82 1004.8
20260508112456 67 121 0.0 1.0 0.00 0.00 0.00 82 1004.8
20260508112355 67 121 0.0 1.0 0.00 0.00 0.00 82 1004.7
20260508112255 67 121 0.0 1.0 0.00 0.00 0.00 82 1004.6
20260508112156 67 121 0.0 1.0 0.00 0.00 0.00 82 1004.6
20260508112055 67 121 0.0 1.0 0.00 0.00 0.00 82 1004.5
20260508111954 67 121 0.0 1.0 0.00 0.00 0.00 82 1004.6
20260508111854 67 121 0.0 1.0 0.00 0.00 0.00 82 1004.6
20260508111757 67 121 0.0 1.0 0.00 0.00 0.00 82 1004.6
20260508111654 67 121 0.0 1.0 0.00 0.00 0.00 82 1004.6
20260508111556 67 121 0.0 1.0 0.00 0.00 0.00 82 1004.7
20260508111456 67 121 0.0 1.0 0.00 0.00 0.00 82 1004.7
20260508111355 67 121 0.0 2.0 0.00 0.00 0.00 82 1004.7
20260508111254 67 121 0.0 2.0 0.00 0.00 0.00 82 1004.7
20260508111156 67 121 0.0 2.0 0.00 0.00 0.00 82 1004.6
20260508111058 67 121 0.0 2.0 0.00 0.00 0.00 82 1004.6
20260508110956 67 121 0.0 2.0 0.00 0.00 0.00 82 1004.6
20260508110855 67 121 0.0 2.0 0.00 0.00 0.00 82 1004.7
20260508110754 67 121 0.0 2.0 0.00 0.00 0.00 82 1004.6
20260508110655 67 61 0.0 2.0 0.00 0.00 0.00 82 1004.7
20260508110556 67 61 0.0 2.0 0.00 0.00 0.00 82 1004.7
20260508110454 67 79 0.0 2.0 0.00 0.00 0.00 82 1004.7
20260508110356 67 68 0.0 1.0 0.00 0.00 0.00 82 1004.7
20260508110256 67 68 0.0 1.0 0.00 0.00 0.00 82 1004.8
20260508110154 67 0 0.0 0.0 0.00 0.00 0.00 82 1004.9
20260508110054 67 0 0.0 0.0 0.00 0.00 0.00 82 1004.8
20260508105954 67 0 0.0 0.0 0.00 0.00 0.00 82 1004.8
20260508105854 67 0 0.0 0.0 0.00 0.00 0.00 82 1004.8
20260508105755 67 0 0.0 0.0 0.00 0.00 0.00 82 1004.7
20260508105655 67 0 0.0 0.0 0.00 0.00 0.00 82 1004.7
20260508105555 67 0 0.0 0.0 0.00 0.00 0.00 82 1004.6
20260508105455 67 0 0.0 0.0 0.00 0.00 0.00 82 1004.5
20260508105355 67 0 0.0 0.0 0.00 0.00 0.00 82 1004.5
20260508105254 67 0 0.0 0.0 0.00 0.00 0.00 82 1004.5
20260508105156 67 0 0.0 0.0 0.00 0.00 0.00 82 1004.5
20260508105054 67 0 0.0 0.0 0.00 0.00 0.00 82 1004.5
20260508104955 67 92 0.0 0.0 0.00 0.00 0.00 82 1004.6
20260508104854 67 92 0.0 0.0 0.00 0.00 0.00 82 1004.6
20260508104755 67 92 0.0 1.0 0.00 0.00 0.00 82 1004.6
20260508104655 67 92 0.0 1.0 0.00 0.00 0.00 82 1004.5
20260508104554 67 92 0.0 1.0 0.00 0.00 0.00 82 1004.5
20260508104453 67 92 0.0 1.0 0.00 0.00 0.00 82 1004.5
20260508104353 67 92 0.0 1.0 0.00 0.00 0.00 82 1004.5
20260508104254 67 92 0.0 1.0 0.00 0.00 0.00 82 1004.5
20260508104206 67 92 0.0 1.0 0.00 0.00 0.00 82 1004.5
20260508104054 67 92 0.0 1.0 0.00 0.00 0.00 82 1004.4
20260508103955 67 92 0.0 1.0 0.00 0.00 0.00 82 1004.4
20260508103853 67 92 0.0 1.0 0.00 0.00 0.00 82 1004.3
20260508103753 67 102 0.0 0.0 0.00 0.00 0.00 82 1004.3
20260508103655 67 102 0.0 0.0 0.00 0.00 0.00 82 1004.3
20260508103555 67 326 0.0 0.0 0.00 0.00 0.00 82 1004.4
20260508103455 67 326 0.0 0.0 0.00 0.00 0.00 82 1004.4
20260508103353 67 326 0.0 0.0 0.00 0.00 0.00 82 1004.4
20260508103254 67 326 0.0 0.0 0.00 0.00 0.00 82 1004.4
20260508103156 67 326 0.0 0.0 0.00 0.00 0.00 82 1004.4
20260508103054 67 326 0.0 0.0 0.00 0.00 0.00 82 1004.5
20260508102955 67 326 0.0 0.0 0.00 0.00 0.00 82 1004.5
20260508102854 67 326 0.0 0.0 0.00 0.00 0.00 82 1004.4
20260508102753 67 326 0.0 0.0 0.00 0.00 0.00 82 1004.5
20260508102654 67 326 0.0 0.0 0.00 0.00 0.00 82 1004.4
20260508102554 67 326 0.0 0.0 0.00 0.00 0.00 82 1004.4
20260508102455 67 326 0.0 0.0 0.00 0.00 0.00 82 1004.4
20260508102354 67 320 0.0 0.0 0.00 0.00 0.00 82 1004.4
20260508102253 67 320 0.0 0.0 0.00 0.00 0.00 82 1004.4
20260508102154 67 320 0.0 0.0 0.00 0.00 0.00 82 1004.4
20260508102054 67 320 0.0 0.0 0.00 0.00 0.00 82 1004.5
20260508101954 67 320 0.0 0.0 0.00 0.00 0.00 82 1004.5
20260508101854 67 320 0.0 0.0 0.00 0.00 0.00 82 1004.5
20260508101753 67 320 0.0 0.0 0.00 0.00 0.00 82 1004.5
20260508101655 67 71 0.0 0.0 0.00 0.00 0.00 82 1004.5
20260508101553 67 71 0.0 0.0 0.00 0.00 0.00 82 1004.4
20260508101454 67 71 0.0 0.0 0.00 0.00 0.00 82 1004.4
20260508101354 67 71 0.0 0.0 0.00 0.00 0.00 82 1004.4
20260508101255 67 71 0.0 0.0 0.00 0.00 0.00 82 1004.4
20260508101153 67 71 0.0 0.0 0.00 0.00 0.00 82 1004.5
20260508101053 67 71 0.0 0.0 0.00 0.00 0.00 82 1004.7
20260508100955 67 71 0.0 0.0 0.00 0.00 0.00 82 1004.6
20260508100853 67 71 0.0 0.0 0.00 0.00 0.00 82 1004.6
20260508100753 67 71 0.0 0.0 0.00 0.00 0.00 82 1004.7
20260508100654 67 71 0.0 0.0 0.00 0.00 0.00 82 1004.7
20260508100600 67 71 0.0 0.0 0.00 0.00 0.00 82 1004.7
20260508100454 67 71 0.0 0.0 0.00 0.00 0.00 82 1004.8
20260508100353 67 71 0.0 0.0 0.00 0.00 0.00 82 1004.8
20260508100255 67 71 0.0 0.0 0.00 0.00 0.00 82 1004.8
20260508100154 67 71 0.0 0.0 0.00 0.00 0.00 82 1004.8
20260508100056 67 71 0.0 0.0 0.00 0.00 0.00 82 1004.7
20260508095953 67 71 0.0 0.0 0.00 0.00 0.00 82 1004.7
20260508095852 67 71 0.0 0.0 0.00 0.00 0.00 82 1004.7
20260508095753 67 71 0.0 0.0 0.00 0.00 0.00 82 1004.7
20260508095653 67 71 0.0 0.0 0.00 0.00 0.00 82 1004.8
20260508095553 67 71 0.0 0.0 0.00 0.00 0.00 82 1004.8
20260508095454 67 71 0.0 0.0 0.00 0.00 0.00 82 1004.8
20260508095354 67 71 0.0 0.0 0.00 0.00 0.00 82 1004.8
20260508095253 67 71 0.0 0.0 0.00 0.00 0.00 82 1004.9
20260508095154 67 71 0.0 0.0 0.00 0.00 0.00 82 1004.9
20260508095054 67 71 0.0 0.0 0.00 0.00 0.00 82 1004.9
20260508094952 67 71 0.0 0.0 0.00 0.00 0.00 81 1005.1
20260508094853 67 71 0.0 0.0 0.00 0.00 0.00 81 1005.1
20260508094753 67 71 0.0 0.0 0.00 0.00 0.00 81 1005.1
20260508094654 67 71 0.0 0.0 0.00 0.00 0.00 81 1005.2
20260508094552 67 71 0.0 0.0 0.00 0.00 0.00 81 1005.0
20260508094449 67 71 0.0 0.0 0.00 0.00 0.00 81 1004.9
20260508094349 67 71 0.0 0.0 0.00 0.00 0.00 81 1004.9
20260508094246 67 71 0.0 0.0 0.00 0.00 0.00 81 1004.8
20260508094140 67 71 0.0 0.0 0.00 0.00 0.00 81 1004.8
20260508094039 67 71 0.0 0.0 0.00 0.00 0.00 81 1004.7
20260508093941 67 71 0.0 0.0 0.00 0.00 0.00 81 1004.6
20260508093841 67 71 0.0 0.0 0.00 0.00 0.00 81 1004.6
20260508093739 67 71 0.0 0.0 0.00 0.00 0.00 81 1004.5
20260508093639 67 71 0.0 0.0 0.00 0.00 0.00 81 1004.4
20260508093533 67 71 0.0 0.0 0.00 0.00 0.00 81 1004.3
20260508093432 67 71 0.0 2.0 0.00 0.00 0.00 81 1004.3
20260508093330 67 71 0.0 2.0 0.00 0.00 0.00 81 1004.2
20260508093231 67 71 0.0 2.0 0.00 0.00 0.00 81 1004.1
20260508093131 67 71 0.0 2.0 0.00 0.00 0.00 81 1004.2
20260508093031 67 71 0.0 2.0 0.00 0.00 0.00 81 1004.2
20260508092931 67 73 0.0 2.0 0.00 0.00 0.00 81 1004.2
20260508092831 67 73 0.0 2.0 0.00 0.00 0.00 81 1004.1
20260508092731 67 73 0.0 2.0 0.00 0.00 0.00 81 1004.1
20260508092625 67 73 0.0 2.0 0.00 0.00 0.00 81 1004.1
20260508092521 67 73 0.0 2.0 0.00 0.00 0.00 81 1004.2
20260508092417 67 73 0.0 1.0 0.00 0.00 0.00 81 1004.3
20260508092313 67 340 0.0 0.0 0.00 0.00 0.00 81 1004.4
20260508092206 67 340 0.0 0.0 0.00 0.00 0.00 81 1004.5
20260508092104 67 340 0.0 0.0 0.00 0.00 0.00 81 1004.5
20260508092005 67 340 0.0 0.0 0.00 0.00 0.00 81 1004.5
20260508091903 67 340 0.0 0.0 0.00 0.00 0.00 81 1004.5
20260508091803 67 340 0.0 0.0 0.00 0.00 0.00 81 1004.6
20260508091704 67 340 0.0 0.0 0.00 0.00 0.00 81 1004.6
20260508091604 67 340 0.0 0.0 0.00 0.00 0.00 81 1004.6
20260508091501 67 340 0.0 0.0 0.00 0.00 0.00 81 1004.6
20260508091401 67 340 0.0 0.0 0.00 0.00 0.00 81 1004.5
20260508091253 67 340 0.0 0.0 0.00 0.00 0.00 81 1004.5
20260508091152 67 340 0.0 0.0 0.00 0.00 0.00 81 1004.5
20260508091052 67 340 0.0 0.0 0.00 0.00 0.00 81 1004.5
20260508090952 67 340 0.0 0.0 0.00 0.00 0.00 81 1004.5
20260508090851 67 340 0.0 0.0 0.00 0.00 0.00 81 1004.5
20260508090752 67 340 0.0 0.0 0.00 0.00 0.00 81 1004.5
20260508090650 67 340 0.0 0.0 0.00 0.00 0.00 81 1004.4
20260508090552 67 340 0.0 0.0 0.00 0.00 0.00 81 1004.4
20260508090453 67 340 0.0 0.0 0.00 0.00 0.00 81 1004.4
20260508090353 67 340 0.0 0.0 0.00 0.00 0.00 81 1004.4
20260508090253 67 340 0.0 0.0 0.00 0.00 0.00 81 1004.3
20260508090152 67 340 0.0 0.0 0.00 0.00 0.00 81 1004.3
20260508090051 67 340 0.0 0.0 0.00 0.00 0.00 81 1004.3
20260508085952 67 340 0.0 0.0 0.00 0.00 0.00 81 1004.3
20260508085852 67 340 0.0 0.0 0.00 0.00 0.00 81 1004.3
20260508085751 67 340 0.0 0.0 0.00 0.00 0.00 81 1004.3
20260508085651 67 340 0.0 0.0 0.00 0.00 0.00 81 1004.3
20260508085552 67 340 0.0 0.0 0.00 0.00 0.00 81 1004.3
20260508085453 67 340 0.0 0.0 0.00 0.00 0.00 81 1004.1
20260508085351 67 340 0.0 0.0 0.00 0.00 0.00 81 1004.1
20260508085252 67 350 0.0 0.0 0.00 0.00 0.00 81 1004.1
20260508085151 67 350 0.0 0.0 0.00 0.00 0.00 81 1004.1
20260508085056 67 350 0.0 0.0 0.00 0.00 0.00 81 1004.0
20260508084952 67 350 0.0 0.0 0.00 0.00 0.00 81 1004.0
20260508084852 67 350 0.0 0.0 0.00 0.00 0.00 81 1004.1
20260508084753 67 350 0.0 0.0 0.00 0.00 0.00 81 1004.0
20260508084651 67 350 0.0 0.0 0.00 0.00 0.00 81 1004.1
20260508084552 67 350 0.0 0.0 0.00 0.00 0.00 81 1004.1
20260508084451 67 350 0.0 0.0 0.00 0.00 0.00 81 1004.2
20260508084351 67 350 0.0 0.0 0.00 0.00 0.00 81 1004.2
20260508084252 67 350 0.0 0.0 0.00 0.00 0.00 81 1004.3
20260508084151 67 350 0.0 0.0 0.00 0.00 0.00 81 1004.3
20260508084054 67 350 0.0 0.0 0.00 0.00 0.00 81 1004.4
20260508083951 67 350 0.0 0.0 0.00 0.00 0.00 81 1004.4
20260508083851 67 350 0.0 0.0 0.00 0.00 0.00 81 1004.4
20260508083753 67 350 0.0 0.0 0.00 0.00 0.00 81 1004.4
20260508083651 67 350 0.0 0.0 0.00 0.00 0.00 81 1004.4
20260508083550 67 350 0.0 0.0 0.00 0.00 0.00 81 1004.4
20260508083451 67 350 0.0 0.0 0.00 0.00 0.00 81 1004.4
20260508083351 67 350 0.0 0.0 0.00 0.00 0.00 81 1004.5
20260508083251 67 350 0.0 0.0 0.00 0.00 0.00 81 1004.5
20260508083152 67 350 0.0 0.0 0.00 0.00 0.00 81 1004.5
20260508083053 67 350 0.0 0.0 0.00 0.00 0.00 81 1004.5
20260508082951 67 350 0.0 0.0 0.00 0.00 0.00 81 1004.6
20260508082851 67 350 0.0 0.0 0.00 0.00 0.00 81 1004.6
20260508082751 67 350 0.0 0.0 0.00 0.00 0.00 81 1004.6
20260508082650 67 350 0.0 0.0 0.00 0.00 0.00 81 1004.6
20260508082551 67 350 0.0 0.0 0.00 0.00 0.00 81 1004.6
20260508082452 67 350 0.0 1.0 0.00 0.00 0.00 81 1004.6
20260508082352 67 350 0.0 1.0 0.00 0.00 0.00 81 1004.6
20260508082251 67 350 0.0 1.0 0.00 0.00 0.00 81 1004.7
20260508082151 67 350 0.0 1.0 0.00 0.00 0.00 81 1004.7
20260508082050 67 350 0.0 1.0 0.00 0.00 0.00 81 1004.7
20260508081951 67 350 0.0 1.0 0.00 0.00 0.00 81 1004.7
20260508081852 67 350 0.0 1.0 0.00 0.00 0.00 81 1004.6
20260508081752 67 350 0.0 1.0 0.00 0.00 0.00 81 1004.5
20260508081650 67 350 0.0 1.0 0.00 0.00 0.00 81 1004.6
20260508081550 67 350 0.0 1.0 0.00 0.00 0.00 81 1004.6
20260508081450 67 86 0.0 0.0 0.00 0.00 0.00 81 1004.6
20260508081352 67 86 0.0 0.0 0.00 0.00 0.00 81 1004.6
20260508081250 67 86 0.0 0.0 0.00 0.00 0.00 81 1004.6
20260508081151 67 86 0.0 0.0 0.00 0.00 0.00 81 1004.6
20260508081050 67 86 0.0 0.0 0.00 0.00 0.00 81 1004.5
20260508080952 66 86 0.0 0.0 0.00 0.00 0.00 81 1004.6
20260508080850 66 86 0.0 0.0 0.00 0.00 0.00 81 1004.6
20260508080752 66 86 0.0 0.0 0.00 0.00 0.00 81 1004.6
20260508080657 66 86 0.0 0.0 0.00 0.00 0.00 81 1004.6
20260508080550 66 86 0.0 0.0 0.00 0.00 0.00 81 1004.6
20260508080452 66 86 0.0 0.0 0.00 0.00 0.00 81 1004.6
20260508080350 66 86 0.0 0.0 0.00 0.00 0.00 81 1004.5
20260508080252 66 86 0.0 0.0 0.00 0.00 0.00 81 1004.6
20260508080152 66 86 0.0 0.0 0.00 0.00 0.00 81 1004.6
20260508080050 66 86 0.0 0.0 0.00 0.00 0.00 81 1004.6
20260508075950 66 86 0.0 0.0 0.00 0.00 0.00 81 1004.6
20260508075851 66 86 0.0 0.0 0.00 0.00 0.00 81 1004.7
20260508075750 66 86 0.0 0.0 0.00 0.00 0.00 81 1004.6
20260508075650 66 86 0.0 0.0 0.00 0.00 0.00 81 1004.6
20260508075551 66 86 0.0 0.0 0.00 0.00 0.00 81 1004.6
20260508075450 66 86 0.0 0.0 0.00 0.00 0.00 81 1004.5
20260508075351 66 86 0.0 0.0 0.00 0.00 0.00 81 1004.6
20260508075250 66 86 0.0 0.0 0.00 0.00 0.00 82 1004.6
20260508075150 66 86 0.0 0.0 0.00 0.00 0.00 82 1004.7
20260508075050 66 86 0.0 0.0 0.00 0.00 0.00 82 1004.6
20260508074951 66 86 0.0 0.0 0.00 0.00 0.00 82 1004.7
20260508074850 66 86 0.0 0.0 0.00 0.00 0.00 82 1004.8
20260508074749 66 86 0.0 0.0 0.00 0.00 0.00 82 1004.7
20260508074651 66 86 0.0 0.0 0.00 0.00 0.00 82 1004.7
20260508074550 66 86 0.0 0.0 0.00 0.00 0.00 82 1004.8
20260508074451 66 86 0.0 0.0 0.00 0.00 0.00 82 1004.7
20260508074351 66 86 0.0 0.0 0.00 0.00 0.00 82 1004.7
20260508074249 66 86 0.0 0.0 0.00 0.00 0.00 82 1004.8
20260508074151 66 86 0.0 0.0 0.00 0.00 0.00 82 1004.8
20260508074050 66 86 0.0 0.0 0.00 0.00 0.00 82 1004.9
20260508073950 66 86 0.0 0.0 0.00 0.00 0.00 82 1005.0
20260508073851 66 86 0.0 0.0 0.00 0.00 0.00 82 1005.0
20260508073750 66 86 0.0 0.0 0.00 0.00 0.00 82 1005.0
20260508073650 66 86 0.0 0.0 0.00 0.00 0.00 82 1005.0
20260508073550 66 86 0.0 0.0 0.00 0.00 0.00 82 1005.1
20260508073449 66 86 0.0 0.0 0.00 0.00 0.00 82 1005.0
20260508073350 66 86 0.0 0.0 0.00 0.00 0.00 82 1005.0
20260508073252 66 86 0.0 0.0 0.00 0.00 0.00 82 1005.1
20260508073149 66 86 0.0 0.0 0.00 0.00 0.00 82 1005.1
20260508073049 66 86 0.0 0.0 0.00 0.00 0.00 82 1005.2
20260508072950 66 86 0.0 0.0 0.00 0.00 0.00 82 1005.2
20260508072850 66 86 0.0 0.0 0.00 0.00 0.00 82 1005.3
20260508072750 66 86 0.0 0.0 0.00 0.00 0.00 82 1005.3
20260508072652 66 86 0.0 0.0 0.00 0.00 0.00 82 1005.3
20260508072551 66 86 0.0 0.0 0.00 0.00 0.00 82 1005.4
20260508072451 66 86 0.0 0.0 0.00 0.00 0.00 82 1005.4
20260508072349 66 86 0.0 0.0 0.00 0.00 0.00 82 1005.4
20260508072252 66 86 0.0 0.0 0.00 0.00 0.00 82 1005.3
20260508072151 66 86 0.0 0.0 0.00 0.00 0.00 82 1005.3
20260508072053 66 86 0.0 0.0 0.00 0.00 0.00 82 1005.2
20260508071951 66 86 0.0 0.0 0.00 0.00 0.00 82 1005.1
20260508071851 66 86 0.0 0.0 0.00 0.00 0.00 82 1005.0
20260508071751 66 86 0.0 0.0 0.00 0.00 0.00 82 1005.1
20260508071649 66 86 0.0 0.0 0.00 0.00 0.00 82 1005.1
20260508071550 66 86 0.0 0.0 0.00 0.00 0.00 82 1005.2
20260508071449 66 86 0.0 0.0 0.00 0.00 0.00 82 1005.3
20260508071349 66 86 0.0 0.0 0.00 0.00 0.00 82 1005.3
20260508071252 66 86 0.0 0.0 0.00 0.00 0.00 82 1005.3
20260508071149 66 86 0.0 0.0 0.00 0.00 0.00 82 1005.3
20260508071051 66 86 0.0 0.0 0.00 0.00 0.00 82 1005.2
20260508070952 66 86 0.0 0.0 0.00 0.00 0.00 82 1005.1
20260508070849 66 86 0.0 0.0 0.00 0.00 0.00 82 1005.0
20260508070749 66 86 0.0 0.0 0.00 0.00 0.00 82 1005.0
20260508070649 66 86 0.0 0.0 0.00 0.00 0.00 82 1004.9
20260508070549 65 86 0.0 0.0 0.00 0.00 0.00 82 1005.0
20260508070451 65 86 0.0 0.0 0.00 0.00 0.00 82 1004.9
20260508070349 65 86 0.0 0.0 0.00 0.00 0.00 82 1005.0
20260508070249 65 86 0.0 0.0 0.00 0.00 0.00 82 1005.1
20260508070149 65 86 0.0 0.0 0.00 0.00 0.00 82 1005.1
20260508070050 65 86 0.0 0.0 0.00 0.00 0.00 82 1005.2
20260508065950 65 86 0.0 0.0 0.00 0.00 0.00 82 1005.1
20260508065850 65 86 0.0 0.0 0.00 0.00 0.00 82 1005.2
20260508065748 65 86 0.0 0.0 0.00 0.00 0.00 82 1005.3
20260508065649 65 86 0.0 0.0 0.00 0.00 0.00 82 1005.2
20260508065548 65 86 0.0 0.0 0.00 0.00 0.00 82 1005.3
20260508065449 65 86 0.0 0.0 0.00 0.00 0.00 82 1005.4
20260508065349 65 86 0.0 0.0 0.00 0.00 0.00 82 1005.4
20260508065249 65 86 0.0 0.0 0.00 0.00 0.00 82 1005.4
20260508065149 65 86 0.0 0.0 0.00 0.00 0.00 82 1005.3
20260508065049 65 86 0.0 0.0 0.00 0.00 0.00 82 1005.3
20260508064950 65 86 0.0 0.0 0.00 0.00 0.00 82 1005.3
20260508064850 65 86 0.0 0.0 0.00 0.00 0.00 82 1005.4
20260508064748 65 86 0.0 0.0 0.00 0.00 0.00 82 1005.4
20260508064649 65 86 0.0 0.0 0.00 0.00 0.00 82 1005.4
20260508064550 65 86 0.0 0.0 0.00 0.00 0.00 82 1005.3
20260508064448 65 86 0.0 0.0 0.00 0.00 0.00 82 1005.3
20260508064349 65 86 0.0 0.0 0.00 0.00 0.00 82 1005.3
20260508064248 65 86 0.0 0.0 0.00 0.00 0.00 82 1005.3
20260508064150 65 86 0.0 0.0 0.00 0.00 0.00 82 1005.3
20260508064050 65 86 0.0 0.0 0.00 0.00 0.00 82 1005.3
20260508063949 65 86 0.0 0.0 0.00 0.00 0.00 82 1005.3
20260508063849 65 86 0.0 0.0 0.00 0.00 0.00 82 1005.3
20260508063749 65 86 0.0 0.0 0.00 0.00 0.00 82 1005.2
20260508063650 65 86 0.0 0.0 0.00 0.00 0.00 82 1005.2
20260508063549 65 86 0.0 0.0 0.00 0.00 0.00 82 1005.3
20260508063450 65 86 0.0 0.0 0.00 0.00 0.00 82 1005.3
20260508063348 65 86 0.0 0.0 0.00 0.00 0.00 82 1005.3
20260508063250 65 86 0.0 0.0 0.00 0.00 0.00 82 1005.2
20260508063149 65 86 0.0 0.0 0.00 0.00 0.00 83 1005.2
20260508063048 65 99 0.0 0.0 0.00 0.00 0.00 83 1005.3
20260508062948 65 99 0.0 0.0 0.00 0.00 0.00 83 1005.3
20260508062849 65 99 0.0 0.0 0.00 0.00 0.00 83 1005.3
20260508062748 65 99 0.0 0.0 0.00 0.00 0.00 82 1005.4
20260508062654 65 99 0.0 0.0 0.00 0.00 0.00 82 1005.4
20260508062548 65 99 0.0 0.0 0.00 0.00 0.00 82 1005.4
20260508062448 65 99 0.0 0.0 0.00 0.00 0.00 82 1005.5
20260508062348 65 99 0.0 0.0 0.00 0.00 0.00 82 1005.5
20260508062248 65 99 0.0 0.0 0.00 0.00 0.00 82 1005.5
20260508062151 65 99 0.0 0.0 0.00 0.00 0.00 82 1005.5
20260508062048 65 99 0.0 1.0 0.00 0.00 0.00 82 1005.5
20260508061948 65 99 0.0 1.0 0.00 0.00 0.00 82 1005.5
20260508061848 65 99 0.0 1.0 0.00 0.00 0.00 82 1005.4
20260508061747 65 99 0.0 1.0 0.00 0.00 0.00 82 1005.4
20260508061648 65 99 0.0 1.0 0.00 0.00 0.00 82 1005.3
20260508061548 65 100 0.0 1.0 0.00 0.00 0.00 82 1005.2
20260508061448 65 100 0.0 1.0 0.00 0.00 0.00 82 1005.2
20260508061348 65 93 0.0 1.0 0.00 0.00 0.00 82 1005.3
20260508061247 65 93 0.0 1.0 0.00 0.00 0.00 82 1005.4
20260508061147 65 92 0.0 1.0 0.00 0.00 0.00 82 1005.4
20260508061048 65 93 0.0 0.0 0.00 0.00 0.00 82 1005.4
20260508060948 65 93 0.0 0.0 0.00 0.00 0.00 82 1005.5
20260508060849 65 93 0.0 0.0 0.00 0.00 0.00 82 1005.6
20260508060747 65 93 0.0 0.0 0.00 0.00 0.00 82 1005.6
20260508060650 65 93 0.0 0.0 0.00 0.00 0.00 82 1005.7
20260508060547 65 93 0.0 0.0 0.00 0.00 0.00 82 1005.7
20260508060447 65 93 0.0 0.0 0.00 0.00 0.00 82 1005.6
20260508060349 65 93 0.0 0.0 0.00 0.00 0.00 82 1005.6
20260508060247 65 93 0.0 0.0 0.00 0.00 0.00 82 1005.4
20260508060147 65 93 0.0 0.0 0.00 0.00 0.00 82 1005.4
20260508060048 65 93 0.0 0.0 0.00 0.00 0.00 82 1005.2
20260508055948 65 93 0.0 0.0 0.00 0.00 0.00 82 1005.3
20260508055847 65 93 0.0 0.0 0.00 0.00 0.00 82 1005.2
20260508055748 65 93 0.0 0.0 0.00 0.00 0.00 82 1005.2
20260508055648 65 93 0.0 0.0 0.00 0.00 0.00 82 1005.2
20260508055548 65 93 0.0 0.0 0.00 0.00 0.00 82 1005.2
20260508055448 65 93 0.0 0.0 0.00 0.00 0.00 82 1005.1
20260508055347 65 93 0.0 0.0 0.00 0.00 0.00 82 1005.2
20260508055247 65 93 0.0 0.0 0.00 0.00 0.00 82 1005.1
20260508055147 65 93 0.0 0.0 0.00 0.00 0.00 82 1005.1
20260508055054 65 93 0.0 0.0 0.00 0.00 0.00 82 1005.0
20260508054948 65 93 0.0 0.0 0.00 0.00 0.00 82 1005.0
20260508054849 65 93 0.0 0.0 0.00 0.00 0.00 82 1005.0
20260508054748 65 93 0.0 0.0 0.00 0.00 0.00 82 1004.9
20260508054647 65 93 0.0 0.0 0.00 0.00 0.00 82 1005.0
20260508054555 65 93 0.0 0.0 0.00 0.00 0.00 82 1005.0
20260508054447 65 93 0.0 0.0 0.00 0.00 0.00 82 1004.9
20260508054347 65 93 0.0 0.0 0.00 0.00 0.00 82 1005.0
20260508054247 65 93 0.0 0.0 0.00 0.00 0.00 82 1005.1
20260508054149 65 93 0.0 0.0 0.00 0.00 0.00 82 1005.2
20260508054048 65 93 0.0 0.0 0.00 0.00 0.00 82 1005.1
20260508053947 65 93 0.0 0.0 0.00 0.00 0.00 82 1005.2
20260508053849 65 93 0.0 0.0 0.00 0.00 0.00 82 1005.2
20260508053747 65 93 0.0 0.0 0.00 0.00 0.00 82 1005.2
20260508053648 65 93 0.0 0.0 0.00 0.00 0.00 82 1005.3
20260508053548 65 93 0.0 0.0 0.00 0.00 0.00 82 1005.3
20260508053447 65 93 0.0 0.0 0.00 0.00 0.00 82 1005.3
20260508053348 65 93 0.0 0.0 0.00 0.00 0.00 82 1005.3
20260508053248 65 93 0.0 0.0 0.00 0.00 0.00 82 1005.3
20260508053148 66 93 0.0 0.0 0.00 0.00 0.00 82 1005.3
20260508053048 66 93 0.0 0.0 0.00 0.00 0.00 82 1005.4
20260508052946 66 93 0.0 0.0 0.00 0.00 0.00 82 1005.4
20260508052847 66 93 0.0 0.0 0.00 0.00 0.00 82 1005.4
20260508052747 66 93 0.0 0.0 0.00 0.00 0.00 82 1005.4
20260508052647 66 93 0.0 0.0 0.00 0.00 0.00 81 1005.5
20260508052546 66 93 0.0 0.0 0.00 0.00 0.00 81 1005.5
20260508052446 66 93 0.0 0.0 0.00 0.00 0.00 81 1005.5
20260508052347 66 93 0.0 0.0 0.00 0.00 0.00 81 1005.5
20260508052248 66 93 0.0 0.0 0.00 0.00 0.00 81 1005.4
20260508052148 66 93 0.0 0.0 0.00 0.00 0.00 81 1005.3
20260508052046 66 93 0.0 0.0 0.00 0.00 0.00 81 1005.2
20260508051946 66 93 0.0 0.0 0.00 0.00 0.00 81 1005.0
20260508051846 66 93 0.0 0.0 0.00 0.00 0.00 81 1004.9
20260508051746 66 93 0.0 0.0 0.00 0.00 0.00 81 1005.0
20260508051647 66 93 0.0 0.0 0.00 0.00 0.00 81 1004.9
20260508051547 66 93 0.0 0.0 0.00 0.00 0.00 81 1004.9
20260508051446 66 93 0.0 0.0 0.00 0.00 0.00 81 1004.9
20260508051346 66 93 0.0 0.0 0.00 0.00 0.00 81 1004.9
20260508051247 66 93 0.0 0.0 0.00 0.00 0.00 81 1004.9
20260508051146 66 93 0.0 0.0 0.00 0.00 0.00 81 1004.8
20260508051044 66 93 0.0 0.0 0.00 0.00 0.00 81 1004.9
20260508050944 66 93 0.0 0.0 0.00 0.00 0.00 80 1004.9
20260508050839 66 93 0.0 0.0 0.00 0.00 0.00 80 1004.9
20260508050732 66 93 0.0 0.0 0.00 0.00 0.00 80 1004.9
20260508050632 66 93 0.0 0.0 0.00 0.00 0.00 80 1004.9
20260508050515 66 93 0.0 0.0 0.00 0.00 0.00 80 1004.9
20260508050413 66 93 0.0 0.0 0.00 0.00 0.00 80 1004.9
20260508050308 66 93 0.0 0.0 0.00 0.00 0.00 80 1005.0
20260508050208 66 93 0.0 0.0 0.00 0.00 0.00 80 1005.1
20260508050103 66 93 0.0 0.0 0.00 0.00 0.00 80 1005.1
20260508050002 66 93 0.0 0.0 0.00 0.00 0.00 80 1005.2
20260508045904 66 93 0.0 0.0 0.00 0.00 0.00 80 1005.2
20260508045802 66 93 0.0 0.0 0.00 0.00 0.00 80 1005.2
20260508045704 66 93 0.0 0.0 0.00 0.00 0.00 80 1005.3
20260508045601 66 93 0.0 0.0 0.00 0.00 0.00 80 1005.3
20260508045502 66 93 0.0 0.0 0.00 0.00 0.00 80 1005.2
20260508045402 66 93 0.0 0.0 0.00 0.00 0.00 80 1005.1
20260508045306 66 93 0.0 0.0 0.00 0.00 0.00 80 1005.1
20260508045205 66 93 0.0 0.0 0.00 0.00 0.00 80 1005.0
20260508045102 66 93 0.0 0.0 0.00 0.00 0.00 80 1005.1
20260508045004 66 93 0.0 0.0 0.00 0.00 0.00 80 1005.1
20260508044903 66 93 0.0 0.0 0.00 0.00 0.00 80 1005.2
20260508044804 66 93 0.0 0.0 0.00 0.00 0.00 80 1005.2
20260508044710 66 93 0.0 0.0 0.00 0.00 0.00 80 1005.3
20260508044603 66 93 0.0 0.0 0.00 0.00 0.00 80 1005.4
20260508044503 66 93 0.0 0.0 0.00 0.00 0.00 80 1005.4
20260508044402 66 93 0.0 0.0 0.00 0.00 0.00 80 1005.4
20260508044302 66 93 0.0 0.0 0.00 0.00 0.00 80 1005.4
20260508044206 66 93 0.0 0.0 0.00 0.00 0.00 80 1005.4
20260508044102 66 93 0.0 0.0 0.00 0.00 0.00 80 1005.3
20260508044004 66 93 0.0 0.0 0.00 0.00 0.00 80 1005.3
20260508043901 66 93 0.0 0.0 0.00 0.00 0.00 80 1005.2
20260508043803 66 93 0.0 0.0 0.00 0.00 0.00 80 1005.2
20260508043702 66 93 0.0 0.0 0.00 0.00 0.00 80 1005.2
20260508043604 66 93 0.0 0.0 0.00 0.00 0.00 80 1005.2
20260508043503 66 93 0.0 0.0 0.00 0.00 0.00 80 1005.1
20260508043402 66 93 0.0 0.0 0.00 0.00 0.00 80 1005.1
20260508043302 66 93 0.0 0.0 0.00 0.00 0.00 80 1005.1
20260508043202 66 93 0.0 0.0 0.00 0.00 0.00 80 1005.1
20260508043103 66 93 0.0 0.0 0.00 0.00 0.00 80 1005.1
20260508043004 66 93 0.0 0.0 0.00 0.00 0.00 80 1005.2
20260508042902 66 93 0.0 0.0 0.00 0.00 0.00 79 1005.2
20260508042803 66 93 0.0 0.0 0.00 0.00 0.00 79 1005.2
20260508042705 67 93 0.0 0.0 0.00 0.00 0.00 79 1005.2
20260508042603 67 93 0.0 0.0 0.00 0.00 0.00 79 1005.2
20260508042504 66 93 0.0 0.0 0.00 0.00 0.00 79 1005.2
20260508042403 67 93 0.0 0.0 0.00 0.00 0.00 79 1005.2
20260508042306 67 93 0.0 0.0 0.00 0.00 0.00 79 1005.3
20260508042204 67 93 0.0 0.0 0.00 0.00 0.00 79 1005.3
20260508042104 67 93 0.0 0.0 0.00 0.00 0.00 79 1005.3
20260508042004 67 93 0.0 0.0 0.00 0.00 0.00 79 1005.4
20260508041903 67 93 0.0 0.0 0.00 0.00 0.00 79 1005.4
20260508041804 67 93 0.0 0.0 0.00 0.00 0.00 78 1005.4
20260508041704 67 93 0.0 0.0 0.00 0.00 0.00 78 1005.4
20260508041603 67 93 0.0 0.0 0.00 0.00 0.00 78 1005.3
20260508041505 67 93 0.0 0.0 0.00 0.00 0.00 78 1005.3
20260508041403 67 93 0.0 0.0 0.00 0.00 0.00 78 1005.4
20260508041304 67 93 0.0 0.0 0.00 0.00 0.00 78 1005.3
20260508041204 67 93 0.0 0.0 0.00 0.00 0.00 78 1005.4
20260508041105 67 93 0.0 0.0 0.00 0.00 0.00 78 1005.2
20260508041005 67 93 0.0 0.0 0.00 0.00 0.00 78 1005.2
20260508040903 67 93 0.0 0.0 0.00 0.00 0.00 78 1005.3
20260508040803 67 93 0.0 0.0 0.00 0.00 0.00 78 1005.2
20260508040702 67 93 0.0 0.0 0.00 0.00 0.00 78 1005.3
20260508040603 67 93 0.0 0.0 0.00 0.00 0.00 78 1005.4
20260508040503 67 93 0.0 0.0 0.00 0.00 0.00 78 1005.4
20260508040403 67 93 0.0 0.0 0.00 0.00 0.00 78 1005.5
20260508040303 67 93 0.0 0.0 0.00 0.00 0.00 78 1005.5
20260508040204 67 93 0.0 0.0 0.00 0.00 0.00 78 1005.6
20260508040108 67 93 0.0 0.0 0.00 0.00 0.00 78 1005.6
20260508040002 67 93 0.0 0.0 0.00 0.00 0.00 78 1005.6
20260508035902 67 93 0.0 0.0 0.00 0.00 0.00 78 1005.4
20260508035801 67 93 0.0 0.0 0.00 0.00 0.00 78 1005.4
20260508035702 67 93 0.0 0.0 0.00 0.00 0.00 78 1005.4
20260508035607 67 93 0.0 0.0 0.00 0.00 0.00 78 1005.4
20260508035505 67 93 0.0 0.0 0.00 0.00 0.00 78 1005.4
20260508035405 67 93 0.0 0.0 0.00 0.00 0.00 78 1005.4
20260508035306 67 93 0.0 0.0 0.00 0.00 0.00 78 1005.4
20260508035204 67 93 0.0 0.0 0.00 0.00 0.00 78 1005.4
20260508035106 67 93 0.0 0.0 0.00 0.00 0.00 78 1005.4
20260508035003 67 93 0.0 0.0 0.00 0.00 0.00 78 1005.5
20260508034903 67 93 0.0 0.0 0.00 0.00 0.00 78 1005.5
20260508034801 67 93 0.0 0.0 0.00 0.00 0.00 78 1005.5
20260508034702 67 93 0.0 0.0 0.00 0.00 0.00 78 1005.5
20260508034611 67 93 0.0 0.0 0.00 0.00 0.00 78 1005.4
20260508034503 67 93 0.0 0.0 0.00 0.00 0.00 78 1005.3
20260508034404 67 93 0.0 0.0 0.00 0.00 0.00 78 1005.3
20260508034303 67 93 0.0 0.0 0.00 0.00 0.00 78 1005.2
20260508034201 67 93 0.0 0.0 0.00 0.00 0.00 78 1005.2
20260508034104 67 93 0.0 1.0 0.00 0.00 0.00 78 1005.1
20260508034003 67 93 0.0 1.0 0.00 0.00 0.00 78 1005.1
20260508033902 67 93 0.0 1.0 0.00 0.00 0.00 78 1005.1
20260508033804 67 93 0.0 1.0 0.00 0.00 0.00 78 1005.0
20260508033702 67 93 0.0 1.0 0.00 0.00 0.00 78 1005.0
20260508033604 67 93 0.0 1.0 0.00 0.00 0.00 78 1005.0
20260508033503 67 82 0.0 1.0 0.00 0.00 0.00 78 1005.0
20260508033403 67 82 0.0 1.0 0.00 0.00 0.00 78 1005.0
20260508033302 67 82 0.0 1.0 0.00 0.00 0.00 78 1005.0
20260508033202 67 63 0.0 1.0 0.00 0.00 0.00 78 1005.0
20260508033102 67 47 0.0 0.0 0.00 0.00 0.00 78 1005.0
20260508033003 67 47 0.0 0.0 0.00 0.00 0.00 78 1005.1
20260508032902 67 47 0.0 0.0 0.00 0.00 0.00 78 1005.1
20260508032804 67 47 0.0 0.0 0.00 0.00 0.00 78 1005.2
20260508032702 67 47 0.0 0.0 0.00 0.00 0.00 78 1005.2
20260508032603 67 47 0.0 0.0 0.00 0.00 0.00 78 1005.3
20260508032501 67 47 0.0 0.0 0.00 0.00 0.00 78 1005.2
20260508032402 67 49 0.0 0.0 0.00 0.00 0.00 78 1005.2
20260508032306 67 49 0.0 0.0 0.00 0.00 0.00 78 1005.1
20260508032204 67 49 0.0 0.0 0.00 0.00 0.00 77 1005.1
20260508032102 67 49 0.0 0.0 0.00 0.00 0.00 77 1005.1
20260508032003 67 49 0.0 0.0 0.00 0.00 0.00 78 1005.1
20260508031902 67 52 0.0 0.0 0.00 0.00 0.00 78 1005.0
20260508031802 67 48 0.0 0.0 0.00 0.00 0.00 78 1004.9
20260508031703 67 48 0.0 0.0 0.00 0.00 0.00 78 1004.9
20260508031602 67 48 0.0 0.0 0.00 0.00 0.00 78 1004.9
20260508031503 67 48 0.0 0.0 0.00 0.00 0.00 78 1004.9
20260508031402 67 52 0.0 0.0 0.00 0.00 0.00 78 1004.9
20260508031303 67 52 0.0 0.0 0.00 0.00 0.00 78 1005.0
20260508031203 67 52 0.0 0.0 0.00 0.00 0.00 77 1005.0
20260508031108 67 52 0.0 0.0 0.00 0.00 0.00 77 1005.1
20260508031003 67 52 0.0 0.0 0.00 0.00 0.00 77 1005.1
20260508030902 68 52 0.0 0.0 0.00 0.00 0.00 77 1005.2
20260508030802 68 52 0.0 0.0 0.00 0.00 0.00 77 1005.2
20260508030704 68 52 0.0 0.0 0.00 0.00 0.00 77 1005.1
20260508030603 68 52 0.0 0.0 0.00 0.00 0.00 77 1005.1
20260508030503 68 52 0.0 0.0 0.00 0.00 0.00 77 1005.1
20260508030402 68 52 0.0 0.0 0.00 0.00 0.00 77 1005.0
20260508030302 68 52 0.0 0.0 0.00 0.00 0.00 77 1005.1
20260508030202 68 52 0.0 0.0 0.00 0.00 0.00 77 1005.1
20260508030103 68 52 0.0 1.0 0.00 0.00 0.00 77 1005.2
20260508030004 68 52 0.0 1.0 0.00 0.00 0.00 77 1005.1
20260508025903 68 52 0.0 1.0 0.00 0.00 0.00 77 1005.2
20260508025804 68 52 0.0 1.0 0.00 0.00 0.00 77 1005.2
20260508025704 68 52 0.0 1.0 0.00 0.00 0.00 77 1005.2
20260508025603 68 52 0.0 1.0 0.00 0.00 0.00 77 1005.2
20260508025504 68 52 0.0 1.0 0.00 0.00 0.00 77 1005.3
20260508025403 68 52 0.0 1.0 0.00 0.00 0.00 77 1005.3
20260508025306 68 52 0.0 1.0 0.00 0.00 0.00 77 1005.3
20260508025203 68 52 0.0 1.0 0.00 0.00 0.00 77 1005.2
20260508025104 68 86 0.0 0.0 0.00 0.00 0.00 77 1005.3
20260508025006 68 86 0.0 1.0 0.00 0.00 0.00 77 1005.3
20260508024904 68 86 0.0 1.0 0.00 0.00 0.00 77 1005.3
20260508024803 68 86 0.0 1.0 0.00 0.00 0.00 77 1005.3
20260508024703 68 86 0.0 1.0 0.00 0.00 0.00 77 1005.3
20260508024603 68 86 0.0 1.0 0.00 0.00 0.00 77 1005.3
20260508024517 68 86 0.0 1.0 0.00 0.00 0.00 77 1005.3
20260508024403 68 86 0.0 1.0 0.00 0.00 0.00 77 1005.3
20260508024303 68 86 0.0 1.0 0.00 0.00 0.00 77 1005.3
20260508024204 68 86 0.0 1.0 0.00 0.00 0.00 77 1005.4
20260508024103 68 86 0.0 1.0 0.00 0.00 0.00 77 1005.4
20260508024004 68 52 0.0 1.0 0.00 0.00 0.00 77 1005.5
20260508023903 68 52 0.0 1.0 0.00 0.00 0.00 77 1005.5
20260508023805 68 51 0.0 2.0 0.00 0.00 0.00 77 1005.7
20260508023703 68 51 0.0 2.0 0.00 0.00 0.00 77 1005.6
20260508023603 68 90 0.0 2.0 0.00 0.00 0.00 77 1005.7
20260508023504 68 73 0.0 2.0 0.00 0.00 0.00 77 1005.7
20260508023404 68 73 0.0 2.0 0.00 0.00 0.00 77 1005.6
20260508023306 68 73 0.0 2.0 0.00 0.00 0.00 77 1005.7
20260508023203 68 73 0.0 2.0 0.00 0.00 0.00 77 1005.6
20260508023103 68 71 0.0 2.0 0.00 0.00 0.00 77 1005.6
20260508023004 69 71 0.0 2.0 0.00 0.00 0.00 78 1005.6
20260508022903 69 71 1.0 2.0 0.00 0.00 0.00 78 1005.7
20260508022802 69 80 0.0 1.0 0.00 0.00 0.00 78 1005.7
20260508022702 69 80 0.0 2.0 0.00 0.00 0.00 78 1005.7
20260508022602 69 80 0.0 2.0 0.00 0.00 0.00 77 1005.7
20260508022503 69 80 0.0 2.0 0.00 0.00 0.00 77 1005.8
20260508022402 69 80 0.0 2.0 0.00 0.00 0.00 77 1005.7
20260508022306 69 80 0.0 2.0 0.00 0.00 0.00 77 1005.7
20260508022216 69 80 0.0 2.0 0.00 0.00 0.00 77 1005.7
20260508022102 69 80 0.0 2.0 0.00 0.00 0.00 77 1005.7
20260508022003 69 80 0.0 2.0 0.00 0.00 0.00 77 1005.7
20260508021902 69 80 0.0 2.0 0.00 0.00 0.00 77 1005.7
20260508021803 69 80 0.0 2.0 0.00 0.00 0.00 77 1005.7
20260508021714 69 82 0.0 0.0 0.00 0.00 0.00 77 1005.8
20260508021603 69 82 0.0 0.0 0.00 0.00 0.00 77 1005.8
20260508021505 69 82 0.0 0.0 0.00 0.00 0.00 77 1005.8
20260508021402 69 82 0.0 0.0 0.00 0.00 0.00 77 1005.8
20260508021302 69 82 0.0 0.0 0.00 0.00 0.00 77 1005.6
20260508021205 69 82 0.0 0.0 0.00 0.00 0.00 77 1005.6
20260508021103 69 82 0.0 0.0 0.00 0.00 0.00 77 1005.5
20260508021002 69 82 0.0 0.0 0.00 0.00 0.00 77 1005.5
20260508020903 69 82 0.0 0.0 0.00 0.00 0.00 77 1005.5
20260508020802 69 82 0.0 0.0 0.00 0.00 0.00 77 1005.5
20260508020705 69 82 0.0 0.0 0.00 0.00 0.00 77 1005.5
20260508020602 69 82 0.0 0.0 0.00 0.00 0.00 77 1005.5
20260508020503 69 82 0.0 0.0 0.00 0.00 0.00 78 1005.6
20260508020403 69 82 0.0 0.0 0.00 0.00 0.00 78 1005.7
20260508020303 69 82 0.0 0.0 0.00 0.00 0.00 78 1005.6
20260508020202 69 82 0.0 0.0 0.00 0.00 0.00 78 1005.6
20260508020103 69 82 0.0 0.0 0.00 0.00 0.00 78 1005.6
20260508020003 69 82 0.0 0.0 0.00 0.00 0.00 78 1005.6
20260508015902 69 82 0.0 0.0 0.00 0.00 0.00 78 1005.6
20260508015802 69 82 0.0 0.0 0.00 0.00 0.00 78 1005.6
20260508015702 69 82 0.0 0.0 0.00 0.00 0.00 78 1005.7
20260508015602 69 82 0.0 0.0 0.00 0.00 0.00 78 1005.6
20260508015504 69 82 0.0 0.0 0.00 0.00 0.00 78 1005.5
20260508015404 69 82 0.0 0.0 0.00 0.00 0.00 78 1005.6
20260508015305 70 82 0.0 0.0 0.00 0.00 0.00 77 1005.5
20260508015211 70 82 0.0 0.0 0.00 0.00 0.00 77 1005.5
20260508015102 70 82 0.0 0.0 0.00 0.00 0.00 77 1005.5
20260508015003 70 82 0.0 0.0 0.00 0.00 0.00 77 1005.6
20260508014904 70 82 0.0 0.0 0.00 0.00 0.00 77 1005.6
20260508014802 70 82 0.0 0.0 0.00 0.00 0.00 77 1005.7
20260508014708 70 82 0.0 0.0 0.00 0.00 0.00 77 1005.7
20260508014602 70 82 0.0 0.0 0.00 0.00 0.00 77 1005.7
20260508014502 70 82 0.0 0.0 0.00 0.00 0.00 77 1005.8
20260508014403 70 82 0.0 0.0 0.00 0.00 0.00 78 1005.7
20260508014243 70 82 0.0 0.0 0.00 0.00 0.00 78 1005.7
20260508014142 70 82 0.0 0.0 0.00 0.00 0.00 78 1005.7
20260508014043 70 82 0.0 0.0 0.00 0.00 0.00 78 1005.7
20260508013943 70 82 0.0 0.0 0.00 0.00 0.00 78 1005.7
20260508013843 70 82 0.0 0.0 0.00 0.00 0.00 78 1005.7
20260508013741 70 82 0.0 0.0 0.00 0.00 0.00 77 1005.7
20260508013647 70 82 0.0 0.0 0.00 0.00 0.00 77 1005.6
20260508013543 70 82 0.0 0.0 0.00 0.00 0.00 77 1005.7
20260508013443 70 82 0.0 0.0 0.00 0.00 0.00 77 1005.5
20260508013344 70 82 0.0 0.0 0.00 0.00 0.00 77 1005.5
20260508013243 70 82 0.0 0.0 0.00 0.00 0.00 77 1005.6
20260508013143 70 82 0.0 0.0 0.00 0.00 0.00 77 1005.6
20260508013043 70 82 0.0 0.0 0.00 0.00 0.00 77 1005.5
20260508012941 70 82 0.0 0.0 0.00 0.00 0.00 77 1005.7
20260508012842 70 82 0.0 0.0 0.00 0.00 0.00 77 1005.7
20260508012743 70 82 0.0 0.0 0.00 0.00 0.00 77 1005.7
20260508012647 70 82 0.0 0.0 0.00 0.00 0.00 77 1005.7
20260508012542 70 82 0.0 0.0 0.00 0.00 0.00 77 1005.7
20260508012442 70 82 0.0 0.0 0.00 0.00 0.00 77 1005.8
20260508012342 70 82 0.0 0.0 0.00 0.00 0.00 77 1005.8
20260508012243 70 82 0.0 0.0 0.00 0.00 0.00 77 1005.7
20260508012147 70 82 0.0 0.0 0.00 0.00 0.00 77 1005.7
20260508012043 71 82 0.0 0.0 0.00 0.00 0.00 77 1005.7
20260508011941 70 82 0.0 0.0 0.00 0.00 0.00 77 1005.6
20260508011842 71 82 0.0 0.0 0.00 0.00 0.00 77 1005.5
20260508011743 71 82 0.0 0.0 0.00 0.00 0.00 77 1005.4
20260508011643 71 82 0.0 0.0 0.00 0.00 0.00 77 1005.4
20260508011543 71 82 0.0 0.0 0.00 0.00 0.00 77 1005.3
20260508011441 71 82 0.0 0.0 0.00 0.00 0.00 77 1005.4
20260508011342 71 82 0.0 0.0 0.00 0.00 0.00 77 1005.4
20260508011241 71 82 0.0 0.0 0.00 0.00 0.00 77 1005.4
20260508011145 71 82 0.0 0.0 0.00 0.00 0.00 77 1005.3
20260508011042 71 82 0.0 0.0 0.00 0.00 0.00 76 1005.4
20260508010942 71 82 0.0 0.0 0.00 0.00 0.00 76 1005.4
20260508010842 71 82 0.0 0.0 0.00 0.00 0.00 77 1005.4
20260508010742 71 82 0.0 0.0 0.00 0.00 0.00 77 1005.5
20260508010645 71 82 0.0 0.0 0.00 0.00 0.00 76 1005.5
20260508010542 71 82 0.0 0.0 0.00 0.00 0.00 76 1005.4
20260508010442 71 82 0.0 0.0 0.00 0.00 0.00 76 1005.4
20260508010343 71 82 0.0 0.0 0.00 0.00 0.00 76 1005.4
20260508010241 71 82 0.0 0.0 0.00 0.00 0.00 76 1005.4
20260508010141 71 82 0.0 0.0 0.00 0.00 0.00 76 1005.4
20260508010041 71 82 0.0 0.0 0.00 0.00 0.00 76 1005.4
20260508005941 71 82 0.0 0.0 0.00 0.00 0.00 76 1005.4
20260508005841 71 82 0.0 0.0 0.00 0.00 0.00 76 1005.5
20260508005741 71 82 0.0 0.0 0.00 0.00 0.00 77 1005.5
20260508005644 71 82 0.0 0.0 0.00 0.00 0.00 77 1005.5
20260508005542 71 82 0.0 0.0 0.00 0.00 0.00 77 1005.5
20260508005443 71 82 0.0 0.0 0.00 0.00 0.00 77 1005.5
20260508005340 71 82 0.0 0.0 0.00 0.00 0.00 77 1005.5
20260508005241 71 82 0.0 0.0 0.00 0.00 0.00 77 1005.3
20260508005215 71 82 0.0 0.0 0.00 0.00 0.00 77 1005.3
20260508005043 71 82 0.0 0.0 0.00 0.00 0.00 77 1005.3
20260508004940 71 82 0.0 0.0 0.00 0.00 0.00 77 1005.4
20260508004841 71 82 0.0 0.0 0.00 0.00 0.00 77 1005.4
20260508004741 71 82 0.0 0.0 0.00 0.00 0.00 76 1005.5
20260508004645 71 82 0.0 0.0 0.00 0.00 0.00 76 1005.5
20260508004541 71 82 0.0 0.0 0.00 0.00 0.00 76 1005.5
20260508004441 71 82 0.0 0.0 0.00 0.00 0.00 76 1005.5
20260508004341 71 82 0.0 0.0 0.00 0.00 0.00 76 1005.5
20260508004241 71 82 0.0 0.0 0.00 0.00 0.00 76 1005.5
20260508004146 71 82 0.0 0.0 0.00 0.00 0.00 76 1005.5
20260508004040 71 82 0.0 0.0 0.00 0.00 0.00 76 1005.4
20260508003940 71 82 0.0 0.0 0.00 0.00 0.00 76 1005.4
20260508003840 71 82 0.0 0.0 0.00 0.00 0.00 76 1005.3
20260508003740 71 82 0.0 0.0 0.00 0.00 0.00 76 1005.3
20260508003645 71 82 0.0 1.0 0.00 0.00 0.00 76 1005.4
20260508003542 71 82 0.0 1.0 0.00 0.00 0.00 76 1005.3
20260508003440 71 82 0.0 1.0 0.00 0.00 0.00 76 1005.4
20260508003340 71 82 0.0 1.0 0.00 0.00 0.00 76 1005.4
20260508003241 71 82 0.0 1.0 0.00 0.00 0.00 76 1005.4
20260508003142 71 82 0.0 1.0 0.00 0.00 0.00 76 1005.4
20260508003041 71 82 0.0 1.0 0.00 0.00 0.00 76 1005.4
20260508002941 71 82 0.0 1.0 0.00 0.00 0.00 75 1005.4
20260508002840 71 82 0.0 1.0 0.00 0.00 0.00 75 1005.3
20260508002741 71 82 0.0 1.0 0.00 0.00 0.00 75 1005.2
20260508002641 71 82 0.0 1.0 0.00 0.00 0.00 75 1005.2
20260508002540 71 261 0.0 1.0 0.00 0.00 0.00 75 1005.1
20260508002442 71 261 0.0 1.0 0.00 0.00 0.00 76 1005.0
20260508002340 71 261 0.0 1.0 0.00 0.00 0.00 75 1004.8
20260508002240 71 42 0.0 1.0 0.00 0.00 0.00 75 1004.8
20260508002140 71 42 0.0 1.0 0.00 0.00 0.00 76 1004.9
20260508002041 71 23 0.0 1.0 0.00 0.00 0.00 76 1004.9
20260508001941 71 85 0.0 1.0 0.00 0.00 0.00 75 1005.0
20260508001840 71 85 0.0 2.0 0.00 0.00 0.00 75 1005.0
20260508001740 71 85 0.0 2.0 0.00 0.00 0.00 76 1005.1
20260508001641 72 85 0.0 2.0 0.00 0.00 0.00 76 1005.1
20260508001541 72 85 0.0 2.0 0.00 0.00 0.00 76 1005.2
20260508001438 72 85 0.0 2.0 0.00 0.00 0.00 75 1005.3
20260508001338 72 85 0.0 2.0 0.00 0.00 0.00 75 1005.5
20260508001238 72 85 0.0 2.0 0.00 0.00 0.00 75 1005.6
20260508001135 72 85 0.0 2.0 0.00 0.00 0.00 75 1005.5
20260508001035 72 348 0.0 2.0 0.00 0.00 0.00 75 1005.5
20260508000931 72 348 0.0 2.0 0.00 0.00 0.00 75 1005.5
20260508000832 72 303 0.0 1.0 0.00 0.00 0.00 75 1005.4
20260508000733 72 303 0.0 2.0 0.00 0.00 0.00 75 1005.5
20260508000628 72 303 0.0 2.0 0.00 0.00 0.00 75 1005.4
20260508000521 72 298 0.0 2.0 0.00 0.00 0.00 75 1005.6
20260508000419 72 298 0.0 2.0 0.00 0.00 0.00 75 1005.5
20260508000316 72 298 0.0 2.0 0.00 0.00 0.00 76 1005.5
20260508000219 72 298 0.0 3.0 0.00 0.00 0.00 75 1005.6
20260508000113 72 121 0.0 3.0 0.00 0.00 0.00 75 1005.6
20260508000005 72 121 0.0 3.0 0.00 0.00 0.00 75 1005.5
20260507235903 72 121 1.0 3.0 0.00 0.00 0.00 75 1005.5
20260507235802 72 121 1.0 3.0 0.00 0.00 0.00 76 1005.6
20260507235705 72 97 0.0 3.0 0.00 0.00 0.00 76 1005.5
20260507235604 72 97 1.0 3.0 0.00 0.00 0.00 76 1005.6
20260507235504 73 93 0.0 3.0 0.00 0.00 0.00 76 1005.6
20260507235402 73 80 1.0 3.0 0.00 0.00 0.00 75 1005.7
20260507235306 73 80 2.0 3.0 0.00 0.00 0.00 75 1005.6
20260507235221 74 35 0.0 4.0 0.00 0.00 0.00 74 1005.6
20260507235214 73 90 1.0 3.0 0.00 0.00 0.00 75 1005.7
20260507235156 73 117 0.0 2.0 0.00 0.00 0.00 75 1005.7
20260507235142 73 166 0.0 1.0 0.00 0.00 0.00 75 1005.6
20260507235129 73 166 0.0 1.0 0.00 0.00 0.00 76 1005.5
20260507235101 73 166 0.0 1.0 0.00 0.00 0.00 74 1005.5
20260507235051 73 166 0.0 1.0 0.00 0.00 0.00 74 1005.4
20260507235040 73 166 0.0 1.0 0.00 0.00 0.00 74 1005.4
20260507235027 73 47 0.0 1.0 0.00 0.00 0.00 75 1005.4
20260507235014 73 47 0.0 1.0 0.00 0.00 0.00 75 1005.5
20260507234958 73 47 0.0 1.0 0.00 0.00 0.00 74 1005.5
20260507234947 73 47 0.0 1.0 0.00 0.00 0.00 74 1005.5
20260507234935 73 47 0.0 1.0 0.00 0.00 0.00 74 1005.5
20260507234923 73 47 0.0 1.0 0.00 0.00 0.00 74 1005.6
20260507234910 73 44 0.0 1.0 0.00 0.00 0.00 74 1005.6
20260507234857 73 35 0.0 4.0 0.00 0.00 0.00 75 1005.6
20260507234845 73 35 0.0 4.0 0.00 0.00 0.00 75 1005.7
20260507234833 74 35 0.0 4.0 0.00 0.00 0.00 75 1005.7
20260507234823 74 35 0.0 4.0 0.00 0.00 0.00 75 1005.7
20260507234813 74 35 0.0 4.0 0.00 0.00 0.00 75 1005.7
20260507234802 74 35 0.0 4.0 0.00 0.00 0.00 74 1005.6
20260507234752 74 35 0.0 4.0 0.00 0.00 0.00 73 1005.6
20260507233104 74 35 0.0 4.0 0.00 0.00 0.00 74 1005.6
20260507233005 74 255 2.0 4.0 0.00 0.00 0.00 74 1005.6
20260507232903 74 254 2.0 4.0 0.00 0.00 0.00 75 1005.6
20260507232802 74 99 0.0 4.0 0.00 0.00 0.00 75 1005.5
20260507232703 74 107 0.0 2.0 0.00 0.00 0.00 75 1005.5
20260507232612 74 107 0.0 2.0 0.00 0.00 0.00 75 1005.5
20260507232503 74 107 0.0 2.0 0.00 0.00 0.00 75 1005.5
20260507232404 74 107 0.0 2.0 0.00 0.00 0.00 75 1005.6
20260507232306 74 107 0.0 2.0 0.00 0.00 0.00 74 1005.5
20260507232203 74 107 0.0 2.0 0.00 0.00 0.00 74 1005.7
20260507232106 74 109 0.0 2.0 0.00 0.00 0.00 75 1005.7
20260507232006 74 116 0.0 2.0 0.00 0.00 0.00 75 1005.7
20260507231904 74 117 0.0 4.0 0.00 0.00 0.00 75 1005.7
20260507231803 74 117 0.0 4.0 0.00 0.00 0.00 74 1005.7
20260507231703 74 117 1.0 4.0 0.00 0.00 0.00 74 1005.6
20260507231604 74 117 0.0 4.0 0.00 0.00 0.00 75 1005.6
20260507231504 74 89 0.0 4.0 0.00 0.00 0.00 74 1005.6
20260507231405 74 89 0.0 4.0 0.00 0.00 0.00 74 1005.6
20260507231304 74 89 0.0 4.0 0.00 0.00 0.00 74 1005.6
20260507231203 74 89 0.0 4.0 0.00 0.00 0.00 74 1005.6
20260507231109 74 89 1.0 4.0 0.00 0.00 0.00 74 1005.5
20260507231005 74 83 1.0 4.0 0.00 0.00 0.00 75 1005.6
20260507230904 74 92 0.0 2.0 0.00 0.00 0.00 75 1005.5
20260507230805 74 92 0.0 2.0 0.00 0.00 0.00 75 1005.5
20260507230704 74 89 0.0 2.0 0.00 0.00 0.00 75 1005.5
20260507230554 74 89 0.0 2.0 0.00 0.00 0.00 75 1005.5
20260507230453 74 62 0.0 1.0 0.00 0.00 0.00 76 1005.5
20260507230351 74 63 0.0 1.0 0.00 0.00 0.00 76 1005.6
20260507230251 74 63 0.0 1.0 0.00 0.00 0.00 76 1005.6
20260507230147 74 63 0.0 0.0 0.00 0.00 0.00 76 1005.6
20260507230042 74 63 0.0 0.0 0.00 0.00 0.00 76 1005.6
20260507225938 74 63 0.0 0.0 0.00 0.00 0.00 76 1005.6
20260507225839 74 63 0.0 0.0 0.00 0.00 0.00 75 1005.7
20260507225740 74 63 0.0 0.0 0.00 0.00 0.00 75 1005.7
20260507225639 74 63 0.0 1.0 0.00 0.00 0.00 75 1005.6
20260507225539 74 63 0.0 1.0 0.00 0.00 0.00 75 1005.6
20260507225439 74 63 0.0 1.0 0.00 0.00 0.00 75 1005.5
20260507225338 74 63 0.0 1.0 0.00 0.00 0.00 74 1005.6
20260507225239 74 63 0.0 1.0 0.00 0.00 0.00 74 1005.5
20260507225138 74 63 0.0 1.0 0.00 0.00 0.00 75 1005.5
20260507225040 74 63 0.0 1.0 0.00 0.00 0.00 75 1005.5
20260507224939 74 63 0.0 2.0 0.00 0.00 0.00 75 1005.5
20260507224840 74 63 0.0 2.0 0.00 0.00 0.00 75 1005.5
20260507224740 74 63 0.0 2.0 0.00 0.00 0.00 75 1005.5
20260507224638 74 63 0.0 2.0 0.00 0.00 0.00 75 1005.5
20260507224545 74 63 0.0 2.0 0.00 0.00 0.00 75 1005.5
20260507224434 74 56 0.0 2.0 0.00 0.00 0.00 74 1005.3
20260507224335 74 56 0.0 2.0 0.00 0.00 0.00 73 1005.2
20260507224234 75 56 0.0 2.0 0.00 0.00 0.00 73 1005.3
20260507224131 75 56 0.0 2.0 0.00 0.00 0.00 73 1005.1
20260507224031 75 56 1.0 2.0 0.00 0.00 0.00 73 1005.1
20260507224013 75 104 0.0 2.0 0.00 0.00 0.00 73 1005.0
20260507224001 75 102 0.0 2.0 0.00 0.00 0.00 74 1005.1
20260507223946 75 104 1.0 2.0 0.00 0.00 0.00 74 1005.1
20260507223627 75 123 0.0 2.0 0.00 0.00 0.00 73 1005.0
20260507223534 75 123 0.0 2.0 0.00 0.00 0.00 73 1005.0
20260507223422 75 123 1.0 2.0 0.00 0.00 0.00 73 1005.0
20260507223321 75 100 0.0 2.0 0.00 0.00 0.00 74 1004.9
20260507223216 75 289 0.0 2.0 0.00 0.00 0.00 74 1005.0
20260507223118 75 289 0.0 2.0 0.00 0.00 0.00 74 1004.9
20260507223021 75 289 0.0 2.0 0.00 0.00 0.00 74 1004.9
20260507222918 75 289 0.0 2.0 0.00 0.00 0.00 74 1004.8
20260507222819 75 289 0.0 2.0 0.00 0.00 0.00 74 1004.8
20260507222715 75 289 0.0 2.0 0.00 0.00 0.00 74 1004.8
20260507222612 75 289 0.0 2.0 0.00 0.00 0.00 72 1004.7
20260507222517 75 289 1.0 2.0 0.00 0.00 0.00 72 1004.7
20260507222401 75 289 1.0 2.0 0.00 0.00 0.00 74 1004.7
20260507222305 75 68 0.0 1.0 0.00 0.00 0.00 74 1004.7
20260507222202 75 68 0.0 1.0 0.00 0.00 0.00 73 1004.7
20260507222102 75 68 0.0 1.0 0.00 0.00 0.00 72 1004.7
20260507222004 75 68 0.0 1.0 0.00 0.01 0.00 73 1004.8
20260507221903 75 68 0.0 1.0 0.00 0.01 0.00 73 1004.8
20260507221802 75 68 0.0 1.0 0.00 0.01 0.00 73 1004.9
20260507221702 75 68 0.0 1.0 0.00 0.01 0.00 74 1004.9
20260507221604 75 71 0.0 1.0 0.00 0.01 0.00 74 1004.9
20260507221504 75 71 0.0 2.0 0.00 0.01 0.00 75 1004.9
20260507221403 75 71 0.0 2.0 0.00 0.01 0.00 75 1004.9
20260507221303 75 71 0.0 2.0 0.00 0.01 0.00 74 1005.0
20260507221203 75 71 0.0 2.0 0.00 0.01 0.00 74 1005.0
20260507221103 75 71 0.0 2.0 0.00 0.01 0.00 74 1005.1
20260507221003 75 71 0.0 2.0 0.00 0.01 0.00 73 1005.1
20260507220902 75 71 0.0 2.0 0.00 0.01 0.00 74 1005.1
20260507220803 75 71 0.0 2.0 0.00 0.01 0.00 74 1005.1
20260507220707 75 71 0.0 2.0 0.00 0.01 0.00 72 1005.0
20260507220603 75 71 0.0 2.0 0.00 0.01 0.00 75 1005.0
20260507220454 75 111 0.0 2.0 0.00 0.01 0.00 75 1005.1
20260507220351 75 116 0.0 4.0 0.00 0.01 0.00 74 1005.0
20260507220250 75 116 0.0 4.0 0.00 0.01 0.00 74 1005.0
20260507220151 75 116 0.0 4.0 0.00 0.01 0.00 75 1005.1
20260507220038 75 113 0.0 4.0 0.00 0.01 0.00 72 1005.1
20260507215936 75 113 0.0 4.0 0.00 0.01 0.00 72 1005.1
20260507215838 75 113 0.0 4.0 0.00 0.01 0.00 72 1005.1
20260507215736 75 113 0.0 4.0 0.00 0.01 0.00 72 1005.1
20260507215637 75 113 0.0 4.0 0.00 0.01 0.00 72 1005.1
20260507215538 75 114 2.0 4.0 0.00 0.02 0.00 74 1005.2
20260507215436 75 133 2.0 4.0 0.00 0.03 0.00 75 1005.2
20260507215337 75 234 1.0 4.0 0.00 0.03 0.00 75 1005.2
20260507215237 75 80 0.0 0.0 0.00 0.03 0.00 75 1005.3
20260507215139 75 80 0.0 1.0 0.00 0.03 0.00 75 1005.3
20260507215037 75 80 0.0 1.0 0.00 0.03 0.00 73 1005.3
20260507214936 75 80 0.0 3.0 0.00 0.03 0.00 73 1005.3
20260507214837 75 80 0.0 3.0 0.00 0.03 0.00 73 1005.2
20260507214738 75 80 0.0 3.0 0.00 0.03 0.00 73 1005.3
20260507214637 76 80 0.0 3.0 0.00 0.03 0.00 73 1005.3
20260507214536 76 80 0.0 3.0 0.00 0.03 0.00 73 1005.2
20260507214436 76 80 0.0 3.0 0.00 0.03 0.00 73 1005.2
20260507214336 75 80 0.0 3.0 0.00 0.03 0.00 73 1005.3
20260507214236 75 80 1.0 3.0 0.00 0.03 0.00 73 1005.3
20260507214137 75 79 1.0 3.0 0.00 0.03 0.00 73 1005.3
20260507214036 75 93 1.0 3.0 0.00 0.03 0.00 73 1005.3
20260507213938 75 76 2.0 3.0 0.00 0.03 0.00 73 1005.3
20260507213838 75 76 1.0 2.0 0.00 0.03 0.00 73 1005.3
20260507213736 76 117 0.0 2.0 0.00 0.03 0.00 73 1005.4
20260507213647 76 63 0.0 2.0 0.00 0.03 0.00 72 1005.4
20260507213537 76 63 0.0 2.0 0.00 0.03 0.00 72 1005.4
20260507213439 76 63 0.0 2.0 0.00 0.03 0.00 72 1005.4
20260507213336 76 63 0.0 2.0 0.00 0.03 0.00 72 1005.4
20260507213237 76 68 1.0 2.0 0.00 0.03 0.00 72 1005.4
20260507213136 76 68 1.0 2.0 0.00 0.03 0.00 72 1005.3
20260507213036 76 62 1.0 2.0 0.00 0.03 0.00 73 1005.4
20260507212939 76 114 1.0 2.0 0.00 0.03 0.00 73 1005.4
20260507212836 76 114 1.0 2.0 0.00 0.03 0.00 73 1005.4
20260507212735 76 114 1.0 2.0 0.00 0.03 0.00 73 1005.4
20260507212631 76 114 0.0 2.0 0.00 0.03 0.00 73 1005.4
20260507212533 76 114 0.0 2.0 0.00 0.03 0.00 73 1005.4
20260507212433 76 114 0.0 2.0 0.00 0.03 0.00 74 1005.3
20260507212331 76 114 0.0 2.0 0.00 0.03 0.00 74 1005.3
20260507212233 76 114 0.0 2.0 0.00 0.03 0.00 74 1005.3
20260507212131 76 114 0.0 2.0 0.00 0.03 0.00 74 1005.3
20260507212032 76 114 0.0 4.0 0.00 0.03 0.00 74 1005.2
20260507211932 76 113 0.0 4.0 0.00 0.03 0.00 72 1005.3
20260507211831 76 113 0.0 4.0 0.00 0.03 0.00 72 1005.3
20260507211732 76 113 0.0 4.0 0.00 0.03 0.00 72 1005.3
20260507211634 76 113 1.0 4.0 0.00 0.03 0.00 72 1005.3
20260507211532 76 113 1.0 4.0 0.00 0.03 0.00 73 1005.3
20260507211431 76 134 1.0 4.0 0.00 0.03 0.00 73 1005.4
20260507211329 76 138 1.0 4.0 0.00 0.03 0.00 74 1005.4
20260507211226 76 30 1.0 4.0 0.00 0.03 0.00 74 1005.3
20260507211126 76 30 2.0 4.0 0.00 0.03 0.00 74 1005.4
20260507211023 76 51 1.0 3.0 0.00 0.03 0.00 74 1005.4
20260507210919 76 106 1.0 2.0 0.00 0.03 0.00 74 1005.5
20260507210821 76 104 1.0 2.0 0.00 0.03 0.00 74 1005.5
20260507210719 76 351 1.0 2.0 0.00 0.03 0.00 74 1005.5
20260507210622 76 351 1.0 3.0 0.00 0.03 0.00 74 1005.5
20260507210516 76 330 1.0 3.0 0.00 0.03 0.00 74 1005.6
20260507210410 76 330 1.0 3.0 0.00 0.03 0.00 74 1005.6
20260507210310 76 327 0.0 3.0 0.00 0.03 0.00 74 1005.5
20260507210208 76 327 0.0 3.0 0.00 0.03 0.00 73 1005.5
20260507210109 76 327 0.0 3.0 0.00 0.03 0.00 74 1005.6
20260507210003 76 327 1.0 3.0 0.00 0.03 0.00 72 1005.7
20260507205904 76 327 1.0 3.0 0.00 0.03 0.00 72 1005.6
20260507205804 76 327 2.0 3.0 0.00 0.03 0.00 72 1005.7
20260507205704 76 326 1.0 3.0 0.00 0.03 0.00 73 1005.7
20260507205606 76 73 0.0 2.0 0.00 0.03 0.00 73 1005.7
20260507205503 76 73 0.0 2.0 0.00 0.03 0.00 73 1005.8
20260507205403 76 73 0.0 2.0 0.00 0.03 0.00 73 1005.8
20260507205306 76 76 0.0 2.0 0.00 0.03 0.00 73 1005.8
20260507205204 76 76 1.0 3.0 0.00 0.03 0.00 74 1005.7
20260507205104 76 82 1.0 3.0 0.00 0.03 0.00 74 1005.8
20260507205004 76 82 0.0 3.0 0.00 0.03 0.00 73 1005.8
20260507204903 76 82 0.0 3.0 0.00 0.03 0.00 72 1005.8
20260507204802 76 82 1.0 3.0 0.00 0.03 0.00 72 1005.9
20260507204703 76 135 1.0 3.0 0.00 0.03 0.00 72 1005.8
20260507204603 76 107 1.0 3.0 0.00 0.03 0.00 73 1005.9
20260507204505 76 118 1.0 3.0 0.00 0.03 0.00 73 1005.9
20260507204403 75 69 1.0 3.0 0.00 0.03 0.00 73 1005.9
20260507204303 75 63 1.0 3.0 0.00 0.03 0.00 73 1005.9
20260507204201 75 61 1.0 2.0 0.00 0.03 0.00 73 1006.0
20260507204105 75 3 1.0 2.0 0.00 0.03 0.00 73 1005.9
20260507204005 75 11 1.0 4.0 0.00 0.03 0.00 73 1005.9
20260507203904 75 0 1.0 4.0 0.00 0.03 0.00 73 1005.9
20260507203804 75 149 1.0 4.0 0.00 0.03 0.00 73 1005.9
20260507203704 75 34 0.0 4.0 0.00 0.03 0.00 73 1005.8
20260507203602 75 34 1.0 4.0 0.00 0.03 0.00 74 1005.9
20260507203504 76 23 1.0 4.0 0.00 0.03 0.00 73 1005.8
20260507203403 76 23 1.0 4.0 0.00 0.03 0.00 74 1005.8
20260507203304 76 137 1.0 4.0 0.00 0.03 0.00 74 1005.8
20260507203204 76 116 1.0 4.0 0.00 0.03 0.00 74 1005.9
20260507203102 75 117 2.0 4.0 0.00 0.03 0.00 74 1005.9
20260507203004 75 247 1.0 2.0 0.00 0.03 0.00 74 1006.0
20260507202904 75 323 0.0 2.0 0.00 0.03 0.00 74 1006.0
20260507202802 75 320 0.0 3.0 0.00 0.03 0.00 73 1006.1
20260507202703 75 320 1.0 3.0 0.00 0.03 0.00 74 1006.1
20260507202605 75 134 1.0 3.0 0.00 0.03 0.00 74 1006.1
20260507202503 75 135 0.0 3.0 0.00 0.03 0.00 74 1006.1
20260507202404 75 44 1.0 3.0 0.00 0.03 0.00 73 1006.1
20260507202306 75 42 1.0 3.0 0.00 0.03 0.00 73 1006.1
20260507202203 75 336 0.0 3.0 0.00 0.03 0.00 74 1006.1
20260507202103 75 336 0.0 3.0 0.00 0.03 0.00 74 1006.0
20260507202005 75 336 1.0 3.0 0.00 0.03 0.00 72 1006.1
20260507201903 75 336 1.0 3.0 0.00 0.03 0.00 72 1006.2
20260507201804 75 324 1.0 3.0 0.00 0.03 0.00 72 1006.1
20260507201703 76 8 0.0 3.0 0.00 0.03 0.00 72 1006.1
20260507201603 76 68 1.0 2.0 0.00 0.03 0.00 72 1006.1
20260507201503 76 68 1.0 3.0 0.00 0.03 0.00 73 1006.1
20260507201403 76 93 1.0 3.0 0.00 0.03 0.00 73 1006.1
20260507201303 76 93 1.0 3.0 0.00 0.03 0.00 73 1006.1
20260507201203 76 94 1.0 3.0 0.00 0.03 0.00 74 1006.1
20260507201104 76 94 0.0 3.0 0.00 0.03 0.00 74 1006.2
20260507201004 76 78 1.0 3.0 0.00 0.03 0.00 74 1006.1
20260507200904 76 78 1.0 3.0 0.00 0.03 0.00 74 1006.1
20260507200802 76 31 1.0 3.0 0.00 0.03 0.00 74 1006.2
20260507200702 76 31 2.0 3.0 0.00 0.03 0.00 74 1006.2
20260507200604 76 133 2.0 3.0 0.00 0.03 0.00 74 1006.2
20260507200505 76 276 1.0 2.0 0.00 0.03 0.00 73 1006.1
20260507200359 76 209 1.0 2.0 0.00 0.03 0.00 74 1006.1
20260507200256 76 20 0.0 2.0 0.00 0.03 0.00 74 1006.0
20260507200151 75 37 0.0 3.0 0.00 0.03 0.00 74 1006.1
20260507200039 75 51 0.0 3.0 0.00 0.03 0.00 74 1006.0
20260507195935 75 51 0.0 3.0 0.00 0.03 0.00 74 1006.0
20260507195834 75 42 0.0 3.0 0.00 0.03 0.00 74 1006.1
20260507195734 75 90 1.0 3.0 0.00 0.03 0.00 73 1006.1
20260507195635 75 75 1.0 3.0 0.00 0.03 0.00 73 1006.1
20260507195537 75 128 0.0 3.0 0.00 0.03 0.00 73 1006.2
20260507195434 75 54 1.0 3.0 0.00 0.03 0.00 73 1006.2
20260507195335 75 113 2.0 3.0 0.00 0.03 0.00 73 1006.2
20260507195234 75 111 1.0 3.0 0.00 0.03 0.00 73 1006.2
20260507195134 75 94 1.0 4.0 0.00 0.03 0.00 73 1006.2
20260507195035 75 0 0.0 4.0 0.00 0.03 0.00 74 1006.3
20260507194934 75 123 0.0 4.0 0.00 0.03 0.00 73 1006.3
20260507194833 75 123 1.0 4.0 0.00 0.03 0.00 73 1006.2
20260507194734 75 123 1.0 4.0 0.00 0.03 0.00 74 1006.3
20260507194634 75 65 1.0 4.0 0.00 0.03 0.00 74 1006.2
20260507194534 75 66 1.0 4.0 0.00 0.03 0.00 74 1006.3
20260507194434 75 80 1.0 4.0 0.00 0.03 0.00 73 1006.3
20260507194333 75 93 2.0 4.0 0.00 0.03 0.00 73 1006.3
20260507194233 75 319 1.0 4.0 0.00 0.03 0.00 73 1006.4
20260507194133 75 329 1.0 4.0 0.00 0.03 0.00 73 1006.4
20260507194034 75 329 1.0 4.0 0.00 0.03 0.00 72 1006.5
20260507193933 76 42 1.0 4.0 0.00 0.03 0.00 72 1006.5
20260507193834 76 80 1.0 4.0 0.00 0.03 0.00 72 1006.5
20260507193733 76 87 1.0 4.0 0.00 0.03 0.00 72 1006.6
20260507193633 76 92 2.0 4.0 0.00 0.03 0.00 74 1006.7
20260507193534 76 106 2.0 4.0 0.00 0.03 0.00 74 1006.7
20260507193433 76 104 1.0 4.0 0.00 0.03 0.00 74 1006.7
20260507193335 75 90 2.0 4.0 0.00 0.03 0.00 74 1006.9
20260507193234 75 44 2.0 4.0 0.00 0.03 0.00 74 1006.7
20260507193134 75 106 2.0 4.0 0.00 0.03 0.00 75 1006.7
20260507193037 75 96 1.0 3.0 0.00 0.03 0.00 75 1006.7
20260507192933 75 38 1.0 3.0 0.00 0.03 0.00 73 1006.6
20260507192833 75 38 1.0 3.0 0.00 0.03 0.00 73 1006.5
20260507192733 75 39 0.0 3.0 0.00 0.03 0.00 73 1006.4
20260507192633 75 38 1.0 3.0 0.00 0.03 0.00 74 1006.4
20260507192534 75 38 2.0 3.0 0.00 0.03 0.00 74 1006.4
20260507192434 74 312 1.0 3.0 0.00 0.03 0.00 75 1006.4
20260507192334 74 10 1.0 3.0 0.00 0.03 0.00 73 1006.4
20260507192233 74 141 2.0 3.0 0.00 0.03 0.00 74 1006.4
20260507192133 74 348 2.0 3.0 0.00 0.03 0.00 75 1006.4
20260507192037 74 326 2.0 3.0 0.00 0.03 0.00 75 1006.4
20260507191933 74 141 1.0 3.0 0.00 0.03 0.00 74 1006.5
20260507191833 74 154 0.0 3.0 0.00 0.03 0.00 74 1006.5
20260507191735 74 154 1.0 3.0 0.00 0.03 0.00 74 1006.4
20260507191633 74 154 1.0 3.0 0.00 0.03 0.00 74 1006.4
20260507191534 74 154 1.0 3.0 0.00 0.03 0.00 73 1006.4
20260507191433 74 254 1.0 3.0 0.00 0.03 0.00 73 1006.4
20260507191332 74 92 0.0 3.0 0.00 0.03 0.00 73 1006.4
20260507191233 74 89 0.0 3.0 0.00 0.03 0.00 73 1006.5
20260507191133 74 89 0.0 3.0 0.00 0.03 0.00 71 1006.6
20260507191034 74 89 1.0 3.0 0.00 0.03 0.00 71 1006.5
20260507190934 74 89 2.0 3.0 0.00 0.03 0.00 71 1006.6
20260507190832 74 183 2.0 3.0 0.00 0.03 0.00 71 1006.6
20260507190733 75 185 2.0 3.0 0.00 0.03 0.00 71 1006.7
20260507190633 75 0 1.0 3.0 0.00 0.03 0.00 72 1006.7
20260507190533 75 38 0.0 3.0 0.00 0.03 0.00 73 1006.7
20260507190433 75 137 1.0 3.0 0.00 0.03 0.00 73 1006.8
20260507190333 75 130 1.0 3.0 0.00 0.03 0.00 72 1006.7
20260507190235 75 130 2.0 3.0 0.00 0.03 0.00 75 1006.9
20260507190132 75 161 1.0 3.0 0.00 0.03 0.00 75 1006.9
20260507190033 74 114 1.0 3.0 0.00 0.03 0.00 73 1007.2
20260507185933 74 69 1.0 3.0 0.00 0.03 0.00 73 1007.2
20260507185832 74 71 2.0 3.0 0.00 0.03 0.00 74 1007.2
20260507185734 74 82 2.0 3.0 0.00 0.03 0.00 74 1007.3
20260507185633 74 102 1.0 3.0 0.00 0.03 0.00 74 1007.3
20260507185532 74 92 0.0 2.0 0.00 0.03 0.00 73 1007.3
20260507185433 74 93 0.0 2.0 0.00 0.03 0.00 73 1007.2
20260507185335 74 89 1.0 2.0 0.00 0.03 0.00 74 1007.1
20260507185234 74 58 1.0 2.0 0.00 0.03 0.00 76 1007.2
20260507185132 74 58 1.0 2.0 0.00 0.03 0.00 76 1007.1
20260507185034 74 58 1.0 3.0 0.00 0.03 0.00 75 1007.1
20260507184932 73 17 1.0 3.0 0.00 0.03 0.00 75 1007.2
20260507184833 73 109 1.0 3.0 0.00 0.03 0.00 74 1007.2
20260507184733 73 111 1.0 3.0 0.00 0.03 0.00 74 1007.2
20260507184632 73 107 1.0 5.0 0.00 0.03 0.00 74 1007.3
20260507184532 73 99 2.0 5.0 0.00 0.03 0.00 75 1007.4
20260507184433 73 96 1.0 5.0 0.00 0.03 0.00 75 1007.4
20260507184332 73 76 1.0 5.0 0.00 0.03 0.00 75 1007.4
20260507184234 73 76 1.0 5.0 0.00 0.03 0.00 75 1007.4
20260507184132 73 76 1.0 5.0 0.00 0.03 0.00 76 1007.4
20260507184033 73 141 0.0 5.0 0.00 0.03 0.00 76 1007.5
20260507183933 72 281 1.0 5.0 0.00 0.03 0.00 75 1007.6
20260507183834 72 281 2.0 5.0 0.00 0.03 0.00 75 1007.6
20260507183733 72 345 2.0 5.0 0.00 0.03 0.00 75 1007.6
20260507183632 72 114 2.0 4.0 0.00 0.03 0.00 75 1007.7
20260507183533 72 121 2.0 4.0 0.00 0.03 0.00 74 1007.6
20260507183432 72 63 1.0 5.0 0.00 0.03 0.00 74 1007.6
20260507183332 72 65 1.0 5.0 0.00 0.03 0.00 75 1007.4
20260507183233 72 65 1.0 5.0 0.00 0.03 0.00 75 1007.4
20260507183132 72 45 1.0 5.0 0.00 0.03 0.00 75 1007.3
20260507183032 72 92 1.0 5.0 0.00 0.03 0.00 75 1007.4
20260507182932 72 92 2.0 5.0 0.00 0.03 0.00 74 1007.4
20260507182832 72 54 2.0 5.0 0.00 0.03 0.00 74 1007.5
20260507182733 72 217 2.0 5.0 0.00 0.03 0.00 74 1007.6
20260507182632 72 73 2.0 5.0 0.00 0.03 0.00 76 1007.6
20260507182532 72 0 2.0 5.0 0.00 0.03 0.00 76 1007.7
20260507182432 72 3 1.0 3.0 0.00 0.03 0.00 76 1007.7
20260507182332 71 320 1.0 3.0 0.00 0.03 0.00 76 1007.7
20260507182230 71 288 1.0 3.0 0.00 0.03 0.00 76 1007.7
20260507182132 71 354 2.0 3.0 0.00 0.03 0.00 76 1007.7
20260507182031 71 94 1.0 3.0 0.00 0.03 0.00 76 1007.7
20260507181933 71 86 1.0 3.0 0.00 0.03 0.00 77 1007.6
20260507181831 71 329 2.0 3.0 0.00 0.03 0.00 76 1007.6
20260507181732 71 331 2.0 3.0 0.00 0.03 0.00 76 1007.5
20260507181632 71 179 2.0 3.0 0.00 0.03 0.00 76 1007.5